[{"header": {"dx": 0.06612293990616946, "dy": 0.0552356325346848, "nx": 98, "ny": 59, "la1": 35.046912555036876, "la2": 31.78801023549047, "lo1": -121.43107172385933, "lo2": -114.95102361305473, "refTime": "2026041022", "parameterCategory": 1, "parameterNumber": 2}, "data": [1.96, 1.83, 1.83, 1.89, 1.89, 2.72, 3.57, 4.27, 5.02, 5.91, 6.52, 5.99, 7.54, 7.9, 7.27, 7.06, 5.43, 4.99, 3.77, 3.53, 3.53, 3.68, 4.92, 6.15, 6.57, 5.86, 5.2, 5.0, 4.13, 2.6, 1.76, 2.51, 4.75, 4.25, 5.6, 0.0, 3.2, 4.22, 5.37, 8.05, 2.7, 1.84, 2.52, 4.1, 5.81, 6.37, 8.27, 9.11, 8.87, 9.41, 8.18, 9.06, 9.89, 9.89, 10.24, 10.63, 10.3, 10.73, 11.09, 11.8, 11.8, 11.8, 11.58, 10.85, 8.49, 7.44, 7.89, 8.59, 9.48, 9.89, 10.63, 11.28, 11.6, 12.04, 11.79, 11.61, 11.33, 12.42, 9.8, -11.18, 10.28, 0.0, 0.0, 0.0, 0.0, 8.05, 8.05, 7.94, 7.6, 6.24, 3.47, 2.24, 3.41, 4.43, 5.8, 7.18, 7.72, 7.13, 0.99, 1.83, 1.83, 1.83, 1.89, 2.81, 2.81, 3.47, 4.4, 5.18, 5.38, 5.62, 6.84, 7.18, 7.56, 5.54, 3.82, 3.68, 3.53, 3.25, 3.47, 3.53, 5.0, 5.4, 5.14, 5.0, 4.3, 4.3, 3.53, 3.29, 1.7, 1.64, 2.53, 2.71, -0.0, -5.06, 0.0, 3.8, 7.6, 4.6, 1.84, 2.32, 2.54, 4.21, 6.93, 8.69, 9.33, 8.69, 8.67, 7.89, 9.06, 9.89, 9.89, 10.19, 10.19, 10.63, 10.65, 11.09, 11.09, 11.53, 11.8, 11.58, 10.48, 7.62, 6.15, 6.65, 7.63, 8.59, 9.48, 10.58, 11.9, 12.62, 12.98, 12.8, 12.27, 11.95, 11.4, 12.42, 9.8, -11.18, 10.28, 0.0, 0.0, 0.0, 0.0, 8.05, 8.05, 7.94, 7.6, 6.24, 3.47, 2.24, 3.41, 4.43, 5.8, 7.18, 7.72, 7.13, 0.99, 0.92, 0.92, 0.92, 1.89, 1.95, 2.89, 2.72, 3.48, 4.16, 4.17, 4.38, 6.45, 7.26, 6.15, 4.8, 2.71, 2.82, 2.71, 2.37, 2.41, 3.92, 3.92, 5.27, 4.81, 4.13, 3.25, 3.25, 2.6, 2.61, 1.64, 0.8, 0.8, 1.23, -0.0, -0.0, 2.69, 8.0, 5.9, 2.49, 2.31, 2.55, 4.42, 6.01, 8.24, 9.33, 9.33, 8.67, 8.14, 8.3, 9.48, 9.89, 9.89, 9.96, 9.9, 10.3, 10.3, 11.09, 11.09, 11.09, 11.16, 10.85, 8.1, 5.11, 5.67, 7.25, 8.18, 9.06, 10.22, 11.64, 12.86, 13.11, 12.98, 13.18, 12.49, 11.62, 11.4, -0.0, -11.88, -11.03, -0.0, 9.83, 9.39, 8.94, 8.49, 7.2, 7.37, 7.94, 7.81, 4.9, 3.98, 3.98, 4.98, 4.98, 6.67, 7.72, 8.02, 6.53, 0.99, 0.92, 0.95, 0.92, 0.95, 1.95, 2.01, 2.8, 2.64, 3.28, 3.96, 4.08, 6.48, 6.0, 4.62, 2.71, 1.77, 1.98, 1.77, 2.61, 2.6, 2.6, 4.08, 4.47, 5.06, 3.82, 2.71, 2.59, 1.69, 1.7, 0.83, -0.0, -0.0, -0.0, -0.0, 1.39, 2.7, 5.0, 3.97, 2.81, 3.37, 5.16, 5.65, 7.68, 7.8, 8.33, 7.19, 6.94, 7.51, 9.17, 9.2, 9.89, 9.89, 9.56, 9.56, 9.96, 9.92, 9.92, 10.73, 11.09, 10.73, 8.67, 4.49, 4.98, 6.52, 7.49, 8.95, 9.48, 10.52, 11.79, 13.19, 13.11, 12.98, 11.86, 11.18, 11.62, -0.0, -9.48, -13.42, -9.17, -0.0, -0.0, -0.0, -0.0, 7.6, 6.7, 7.2, 5.69, 5.0, 5.31, 4.37, 5.15, 4.81, 5.86, 6.59, 6.95, 8.47, 6.77, 0.99, 0.99, 0.95, 0.95, 0.95, 1.95, 2.01, 2.01, 1.89, 2.49, 3.35, 3.89, 5.2, 4.15, 2.82, 1.77, 0.89, 1.0, 1.84, 1.84, 2.72, 2.42, 2.6, 4.24, 2.71, 2.62, 2.62, 1.28, 1.28, 1.69, 0.89, -0.0, -0.0, -0.0, 1.39, 2.71, 4.58, 6.43, 6.47, 5.39, 5.65, 6.71, 5.85, 6.2, 6.21, 6.48, 6.7, 7.51, 8.3, 9.17, 9.17, 9.17, 9.17, 9.17, 9.17, 9.48, 9.92, 9.92, 10.25, 10.38, 9.64, 5.8, 3.34, 4.87, 6.4, 8.18, 9.7, 10.12, 10.92, 11.64, 13.03, 13.42, 13.42, 13.07, 11.18, -10.28, -7.59, -7.26, -11.52, -9.8, -3.11, -0.0, 1.84, 1.75, 2.54, 3.17, 3.8, 4.36, 5.45, 5.99, 5.63, 5.08, 4.9, 6.17, 7.06, 7.76, 8.41, 6.97, 0.99, 0.99, 1.02, 1.02, 1.02, 0.98, 1.01, 1.01, 0.95, 1.67, 2.62, 2.87, 3.53, 1.92, 1.01, 0.93, 0.89, 1.0, 1.0, 1.9, 2.06, 1.84, 1.29, 2.54, 1.25, 1.25, 1.25, 1.29, 2.45, 2.62, 0.85, -0.0, -1.02, -0.0, 2.91, 4.81, 6.87, 9.02, 9.24, 6.26, 5.09, 5.81, 5.6, 5.6, 5.99, 6.48, 6.84, 7.93, 8.42, 9.26, 8.53, 8.42, 8.42, 8.72, 9.48, 9.48, 9.17, 9.48, 9.92, 9.48, 6.72, 3.32, 3.36, 5.02, 6.6, 8.99, 10.01, 9.8, 10.58, 11.25, 12.37, 13.02, 13.23, 7.4, -15.18, -10.73, -5.46, -4.2, -4.66, -10.01, -4.0, -0.0, 1.4, 1.14, 2.21, 2.17, 3.77, 6.4, 6.8, 5.02, 4.39, 4.39, 5.0, 5.82, 7.51, 7.87, 8.53, 6.63, 0.99, 0.99, 0.99, 1.02, 1.05, 1.08, 1.01, -0.0, -0.0, 0.84, 1.31, 1.69, 1.69, 0.85, -0.0, -0.0, -0.0, -0.0, 1.04, 1.9, 2.13, 1.19, -0.0, 1.17, 1.47, 1.42, 1.51, 2.81, 3.85, 3.82, 2.6, -0.0, -0.0, -0.0, 2.82, 5.63, 7.58, 7.69, 6.0, 4.24, 3.47, 4.55, 5.45, 6.51, 7.34, 7.18, 8.37, 9.17, 8.85, 8.85, 8.24, 7.64, 8.72, 8.72, 8.72, 8.72, 9.17, 8.85, 9.17, 8.37, 4.64, 2.54, 3.17, 5.02, 7.23, 9.77, 10.34, 10.51, 10.58, 10.92, 11.64, 12.27, 13.38, 12.64, -11.7, -10.02, -6.3, -3.49, -1.68, -3.11, -6.32, -4.0, -0.0, -0.0, 1.84, 1.84, 4.52, 7.0, 5.81, 3.68, 2.93, 4.58, 5.15, 6.52, 7.28, 7.81, 7.51, 6.3, 0.96, 0.99, 1.02, 1.05, 1.08, 1.08, -0.0, -0.0, -0.0, -0.0, -0.0, -0.0, -0.0, -0.0, -0.0, -0.0, -1.0, -0.0, -0.0, 1.17, 1.33, -0.0, -0.0, -0.0, 1.3, 1.83, -0.0, 3.79, 5.18, 4.71, 1.5, -0.0, -0.0, 2.06, 3.92, 6.21, 7.54, 5.69, 5.95, 4.58, 5.11, 5.46, 7.98, 9.24, 8.53, 8.05, 8.85, 9.17, 8.67, 8.83, 7.26, 8.07, 7.93, 7.93, 8.37, 8.37, 8.07, 8.07, 7.78, 6.67, 3.29, 2.39, 3.36, 4.87, 7.36, 9.49, 10.65, 10.43, 10.92, 11.64, 12.23, 12.98, 13.94, 16.37, -0.0, -9.73, -7.69, -3.82, -1.77, -0.0, -0.0, -6.95, -5.7, -3.53, -0.0, -0.0, 3.36, 6.4, 4.98, 2.06, 3.82, 3.68, 4.75, 5.69, 5.44, 6.24, 6.87, 6.3, 1.06, 1.02, 1.02, 1.05, 1.08, 1.08, -0.0, -0.0, -0.0, -0.0, -0.0, -0.0, -0.0, -0.0, -0.0, -1.25, -1.29, -1.17, -0.0, -0.0, -0.0, -0.0, -0.0, -0.0, -0.0, -0.0, -0.0, 2.2, 4.3, 3.81, -0.0, -0.0, -0.0, 5.15, 5.99, 8.22, 5.95, 5.52, 5.7, 5.95, 6.21, 7.1, 7.1, 7.54, 7.85, 8.22, 8.83, 8.51, 7.63, 8.05, 8.31, 7.54, 7.54, 7.1, 7.54, 7.26, 6.67, 6.98, 6.98, 5.2, 2.53, 2.47, 4.1, 5.67, 7.49, 8.84, 10.65, 11.47, 11.6, 12.23, 12.98, 13.05, 14.75, 15.05, 14.3, -8.05, -5.86, -4.17, -1.96, 1.1, 2.57, -4.4, -8.8, -10.18, -10.4, -8.53, -0.0, -0.0, -0.0, -0.0, 2.4, 3.0, 3.68, 4.22, 4.21, 5.2, 6.0, 6.63, 1.1, 1.1, 1.13, 1.13, 1.17, 1.17, -0.0, -0.0, -0.0, -0.0, -0.0, -0.0, -0.0, 1.15, -0.0, -1.48, -3.47, -5.18, -2.35, -1.83, -0.0, -0.0, -0.0, -0.0, -0.0, -0.0, -0.0, -0.0, 2.43, 2.35, -0.0, -0.0, 2.98, 4.98, 7.54, 7.59, 6.17, 5.21, 6.45, 8.3, 8.61, 7.43, 6.67, 6.59, 7.59, 8.69, 8.07, 7.78, 7.63, 7.63, 7.62, 7.62, 6.48, 6.24, 6.41, 5.75, 5.98, 6.41, 6.67, 3.53, 1.71, 2.41, 4.66, 5.67, 7.49, 8.45, 10.43, 11.15, 11.79, 12.23, 12.45, 12.63, 14.3, 13.56, 13.28, 6.0, -3.47, -2.45, -0.74, 0.92, 4.79, 5.78, -3.15, -8.05, -8.94, -9.83, -10.73, -10.28, -9.39, -8.05, -0.0, -0.0, 1.4, 2.21, 4.4, 4.39, 4.87, 5.54, 1.1, 1.1, 1.13, 1.13, 1.13, 1.17, -0.0, -0.0, -0.0, -0.0, -0.0, -0.0, -0.0, 1.25, -0.0, -2.02, -7.2, -9.89, -9.73, -7.98, -5.51, -2.87, -0.0, -0.0, -0.0, -0.0, -2.02, -0.0, -0.0, 3.47, 3.25, 2.13, 3.68, 5.98, 7.44, 7.26, 6.98, 6.2, 8.22, 10.82, 10.69, 8.91, 7.41, 8.93, 8.24, 7.59, 6.41, 6.0, 6.84, 6.84, 6.79, 5.8, 5.8, 5.25, 4.47, 4.81, 3.97, 5.2, 5.2, 2.61, 1.72, 3.28, 4.87, 6.73, 7.74, 8.72, 10.12, 10.18, 10.63, 9.66, 9.69, 10.85, 14.3, 12.42, 12.79, 14.3, -0.0, -0.0, -0.0, 2.64, 4.95, 7.84, 7.2, -5.46, -8.05, -7.6, -8.49, -8.94, -9.39, -7.15, -6.0, -3.97, -0.0, 1.47, 3.07, 3.81, 3.44, 3.87, 1.1, 1.1, 1.1, 1.13, 1.23, 1.23, 1.26, -0.0, -0.0, -0.0, -0.0, -0.0, -0.0, -0.0, 1.33, -0.0, -2.06, -7.93, -11.06, -13.05, -12.36, -9.77, -4.95, -3.9, -3.25, -5.8, -6.94, -2.82, -0.0, -0.0, 4.4, 4.8, 5.95, 5.86, 6.42, 6.58, 7.74, 8.75, 9.89, 10.99, 10.94, 9.8, 8.85, 9.67, 7.27, 4.56, 4.08, 5.2, 5.4, 5.08, 4.81, 4.76, 4.07, 3.98, 3.28, 4.0, 5.11, 5.63, 2.33, 1.71, 2.64, 4.13, 5.63, 7.1, 7.74, 8.83, 9.35, 9.35, 7.74, 7.78, 7.51, 9.17, 13.31, 11.16, 11.37, 13.28, 3.53, 1.63, 2.81, 3.91, 5.46, 6.76, 7.43, 3.7, -3.8, -8.77, -8.77, -9.54, -9.21, -8.05, -6.94, -7.44, -3.97, -1.84, -0.0, 1.83, 1.91, 2.83, 1.19, 1.1, 1.1, 1.23, 1.23, 1.23, 1.23, -0.0, -0.0, -0.0, -0.0, -0.0, -0.0, -0.0, 1.68, 1.89, -0.0, -2.13, -5.6, -9.17, -11.16, -11.26, -11.26, -11.26, -11.26, -10.87, -11.2, -9.77, -5.75, -0.0, 3.65, 6.2, 7.15, 6.87, 6.58, 6.3, 6.95, 8.41, 9.58, 9.97, 9.88, 9.17, 9.16, 7.59, 4.4, 2.6, 2.52, 3.82, 3.82, 3.96, 3.68, 3.04, 2.2, 2.23, 3.62, 4.67, 6.93, 7.4, 3.47, 0.89, 2.47, 5.28, 6.36, 6.76, 6.2, 6.73, 7.11, 6.3, 6.13, 7.4, 9.41, 10.43, 13.01, 8.93, 7.56, 12.72, 4.03, 4.01, 5.17, 5.71, 5.99, 7.64, 8.42, 9.48, 5.21, -9.83, -9.2, -9.2, -8.91, -8.82, -8.49, -8.05, -5.72, -5.1, -1.91, -0.0, 1.76, 1.07, 1.19, 1.19, 1.19, 1.19, 1.23, 1.34, 1.34, 1.3, -0.0, -0.0, -0.0, -0.0, -0.0, -0.0, 1.73, 1.78, 1.94, 2.5, -0.0, -7.36, -10.12, -13.15, -14.18, -14.31, -15.08, -13.32, -13.15, -11.88, -9.17, -4.48, -0.0, 4.8, 6.97, 6.58, 6.58, 5.46, 6.64, 7.74, 8.55, 9.38, 9.48, 7.9, 6.98, 4.4, 1.22, 2.49, 2.47, 3.77, 3.92, 4.08, 3.68, 2.42, 1.23, 1.28, 2.52, 4.68, 7.36, 9.73, 7.28, 2.51, 2.45, 4.74, 6.2, 4.98, 4.93, 4.81, 4.71, 4.46, 5.67, 7.49, 10.87, 12.57, 12.74, 10.0, 9.75, 4.89, 5.25, 6.31, 7.2, 8.18, 7.9, 8.53, 8.93, 11.21, 7.27, 7.27, 11.18, -10.18, -8.49, -8.94, -9.64, -7.6, -5.06, -4.83, -3.39, -0.0, 1.33, 2.21, 1.19, 1.19, 1.19, 2.35, 1.3, 1.34, 1.34, 1.34, 1.42, -0.0, -0.0, -0.0, -0.0, -0.0, -0.0, 1.83, 3.49, 3.9, 3.07, -0.0, -7.82, -11.87, -14.42, -15.05, -15.65, -15.49, -14.84, -11.52, -8.94, -6.0, -2.13, 1.84, 6.71, 7.27, 5.29, 4.4, 6.58, 7.51, 9.7, 8.54, 8.24, 5.2, 5.0, 2.95, 2.58, 2.58, 2.7, 3.87, 3.87, 4.05, 4.23, 4.05, 2.82, 2.69, 3.8, 5.21, 6.58, 7.73, 8.46, 6.0, 3.42, 5.08, 6.3, 6.3, 6.0, 4.98, 4.98, 6.0, 7.51, 8.85, 9.3, 10.69, 10.3, 6.7, 5.6, 6.3, 6.9, 8.16, 8.86, 9.6, 9.89, 9.66, 9.3, 9.2, 7.4, 9.16, 7.59, 7.59, 6.69, 5.7, 2.6, -0.0, -1.84, -1.01, -0.0, 1.11, 2.06, 2.06, 1.19, 1.19, 2.35, 2.35, 2.56, 1.3, 1.42, 1.47, 1.47, -0.0, -0.0, -0.0, 1.47, 1.51, 1.78, -0.0, 1.6, 5.23, 8.51, -0.0, -4.95, -6.16, -13.02, -15.65, -16.09, -15.87, -14.84, -13.02, -10.43, -6.4, -2.28, 2.28, 6.7, 6.17, 5.06, 4.12, 5.63, 7.47, 8.73, 7.59, 5.1, 3.39, 2.95, 2.7, 2.58, 2.46, 2.83, 4.0, 4.0, 5.21, 3.87, 4.2, 5.46, 4.2, 5.59, 5.59, 6.64, 6.58, 7.24, 7.51, 5.76, 7.27, 7.27, 7.27, 6.87, 6.5, 5.9, 7.85, 8.85, 8.85, 7.59, 9.64, 10.59, 7.48, 8.7, 9.17, 9.25, 10.01, 10.84, 11.25, 11.76, 11.53, 10.73, 8.94, 6.17, 5.06, 6.31, 6.98, 6.98, 6.7, 6.83, 3.35, 0.76, -0.0, -0.0, 1.75, 2.83, 2.83, 1.3, 1.3, 2.56, 2.48, 2.56, 2.81, 1.42, 1.47, 1.47, -0.0, -0.0, -0.0, 1.47, 1.51, 1.73, 1.78, 1.56, 4.75, 10.33, -0.0, -6.34, -3.16, -0.0, -11.06, -12.65, -14.9, -12.22, -12.22, -11.06, -7.2, -3.07, -0.0, 4.66, 5.6, 2.83, 2.98, 3.14, 3.82, 3.82, 3.82, 3.39, 2.04, 3.11, 2.83, 2.83, 2.83, 4.0, 4.96, 5.59, 5.59, 5.59, 5.59, 5.21, 5.21, 6.64, 6.64, 6.64, 7.56, 7.9, 7.59, 8.15, 8.37, 8.93, 8.54, 8.18, 6.82, 7.81, 7.56, 7.56, 7.78, 10.43, 12.03, 11.64, 11.34, 11.38, 10.61, 11.5, 13.46, 14.67, 14.36, 13.33, 13.13, 11.9, 8.83, 6.44, 5.76, 6.15, 7.13, 6.83, 6.83, 6.53, 4.71, 2.23, 0.74, 0.98, 1.84, 2.97, 2.97, 1.3, 2.56, 2.56, 2.48, 2.48, 2.81, 2.81, 1.42, 1.63, -0.0, -0.0, -0.0, -0.0, 1.51, 3.3, 1.63, 1.51, 5.98, 10.59, 11.38, -7.76, -3.79, 1.51, 10.43, 14.75, -12.65, -7.0, -5.81, -7.2, -5.23, -3.24, -0.0, -0.0, 2.43, 2.49, 1.01, -0.0, -0.0, 3.82, 3.82, 1.84, 1.67, 2.99, 3.15, 2.83, 4.0, 5.59, 6.32, 6.98, 6.98, 6.98, 5.59, 5.59, 5.59, 6.32, 6.32, 6.64, 7.56, 7.9, 8.37, 8.73, 9.6, 9.45, 9.04, 8.63, 7.63, 7.12, 7.28, 6.95, 8.22, 13.42, 13.83, 14.79, 13.27, 13.76, 14.13, 14.03, 14.79, 15.39, 14.56, 13.59, 12.56, 10.77, 7.19, 6.57, 6.98, 7.59, 6.83, 6.95, 6.83, 7.27, 5.36, 2.9, 2.28, 2.83, 3.11, 2.97, 2.97, 2.56, 2.56, 2.48, 2.48, 2.72, 2.72, 3.1, 1.58, 1.63, 1.63, -0.0, -0.0, -0.0, 1.63, 1.63, 2.28, 1.58, 4.5, 7.76, 3.69, -5.99, -3.79, -0.0, 2.21, 2.89, -0.0, -1.77, -0.0, -0.0, -0.0, -0.0, -3.16, -0.0, -0.0, 2.35, -0.0, -0.0, 2.17, 4.6, 6.2, 5.06, 4.83, 4.2, 5.36, 5.63, 6.64, 7.33, 6.98, 7.44, 6.98, 6.64, 5.59, 5.86, 5.59, 5.86, 6.64, 6.64, 7.56, 8.37, 9.32, 9.6, 10.05, 9.63, 8.56, 8.56, 7.85, 7.81, 7.81, 7.96, 10.48, 12.39, 14.79, 16.85, 17.37, 17.36, 15.91, 15.01, 14.58, 14.51, 14.73, 12.79, 11.29, 9.5, 7.78, 7.36, 7.48, 7.59, 8.31, 7.42, 7.27, 7.59, 5.9, 4.07, 3.78, 4.25, 4.4, 4.6, 4.6, 2.81, 2.81, 2.72, 3.98, 3.98, 2.72, 3.1, 3.1, 1.63, 1.63, -0.0, -0.0, -0.0, 1.63, 1.63, 3.1, 3.58, 1.58, 1.94, -0.0, -2.05, -1.42, -0.0, -0.0, -0.0, -0.0, -0.0, -0.0, -0.0, 2.57, -0.0, -0.0, -3.16, -0.0, -0.0, 2.72, 2.82, 3.39, 5.21, 5.69, 6.01, 6.98, 7.44, 7.44, 7.28, 8.82, 8.05, 8.4, 8.4, 6.98, 5.59, 4.0, 4.96, 4.96, 5.53, 6.32, 7.9, 7.06, 8.43, 10.05, 10.41, 9.97, 10.2, 9.76, 7.85, 7.85, 7.95, 8.17, 8.82, 10.2, 12.33, 15.42, 18.66, 19.57, 18.67, 17.43, 16.07, 15.65, 14.42, 14.42, 13.84, 12.35, 10.75, 8.67, 7.9, 7.64, 7.31, 7.64, 8.31, 7.27, 7.48, 6.84, 5.4, 5.0, 5.86, 6.57, 6.83, 6.83, 2.72, 2.81, 3.98, 3.98, 3.98, 4.38, 3.1, 3.1, 1.63, 1.63, -0.0, -0.0, -0.0, 1.83, 1.89, 3.69, 3.69, 1.72, -0.0, -0.0, -0.0, -0.0, -0.0, -0.0, -5.64, -3.07, -2.98, -0.0, -0.0, 2.72, 2.72, -0.0, -0.0, -0.0, -0.0, 2.98, 6.0, 5.2, 5.95, 7.44, 7.44, 8.4, 8.43, 8.8, 8.4, 9.96, 8.05, 8.4, 8.4, 6.32, 4.6, 4.0, 4.0, 4.96, 6.01, 6.32, 7.06, 7.69, 9.6, 9.63, 9.97, 9.97, 9.76, 9.29, 8.29, 8.73, 8.17, 8.18, 8.73, 9.67, 11.41, 14.05, 18.21, 19.64, 17.85, 16.91, 15.58, 16.35, 15.65, 14.75, 13.99, 13.01, 12.11, 10.73, 9.69, 7.27, 6.95, 7.27, 7.59, 6.88, 6.84, 7.51, 7.19, 6.62, 7.44, 7.82, 8.27, 8.27, 2.72, 3.98, 3.98, 3.98, 4.38, 4.38, 3.01, 3.1, 1.63, 1.83, 1.83, -0.0, -0.0, 1.83, 2.09, 4.18, 3.69, 1.77, -0.0, -2.09, -0.0, -0.0, 2.21, 2.57, -0.0, -3.33, -3.24, -2.57, -0.0, -0.0, 2.34, 2.34, -0.0, -0.0, -0.0, 3.16, 5.48, 7.78, 6.71, 7.27, 6.32, 7.51, 7.51, 8.05, 7.28, 6.99, 9.33, 9.33, 8.05, 4.6, 3.8, 3.8, 4.96, 5.59, 6.64, 6.64, 6.64, 8.12, 8.93, 9.04, 8.72, 9.24, 8.99, 8.79, 8.37, 8.79, 7.96, 6.95, 7.48, 8.54, 10.43, 13.76, 16.56, 18.21, 11.84, 13.23, 16.86, 17.88, 17.36, 15.02, 13.78, 12.37, 12.5, 10.63, 9.8, 7.95, 6.53, 6.7, 7.52, 7.93, 7.24, 7.36, 8.09, 8.16, 8.22, 8.93, 9.0, 9.0, 4.38, 4.38, 4.38, 4.38, 4.38, 4.38, 4.38, 3.1, 3.58, 1.83, 1.89, 1.89, 1.83, 2.09, 2.09, 2.15, 2.15, 3.58, 1.77, -0.0, -0.0, -0.0, 2.43, 4.81, 2.28, -0.0, -2.47, -2.4, -2.34, -0.0, 2.57, 2.28, 2.28, -0.0, -0.0, -0.0, 3.07, 6.0, 6.97, 6.44, 5.9, 6.64, 7.51, 7.15, 6.9, 5.95, 9.13, 7.51, 5.1, 4.14, 3.8, 4.37, 5.31, 5.59, 5.59, 6.64, 6.18, 7.35, 7.9, 7.2, 7.82, 7.81, 7.15, 7.15, 6.79, 6.32, 5.76, 5.46, 6.15, 7.48, 9.17, 11.03, 16.75, 15.61, 7.59, 6.87, 10.61, 14.11, 15.96, 15.42, 13.81, 13.2, 11.44, 9.48, 8.23, 7.68, 6.98, 6.98, 7.36, 7.64, 8.01, 7.8, 8.85, 8.9, 8.93, 9.3, 8.94, 8.94, 4.38, 4.38, 4.38, 4.38, 5.63, 4.38, 4.38, 5.02, 3.58, 1.83, 1.89, 1.89, 2.15, 2.09, 2.5, 2.15, 2.15, 2.09, 4.05, 2.09, -0.0, -0.0, -0.0, 2.35, 4.05, 2.0, -0.0, -2.47, -2.87, -0.0, -0.0, 2.5, 2.21, -0.0, -0.0, 3.07, 3.07, 5.15, 4.48, 6.44, 6.17, 7.27, 6.95, 7.15, 6.44, 6.13, 8.8, 7.51, 4.37, 4.14, 5.31, 5.31, 6.01, 5.31, 5.31, 6.32, 6.01, 6.64, 8.24, 6.95, 5.69, 6.01, 6.18, 6.95, 6.95, 6.31, 5.29, 5.92, 6.04, 7.68, 8.42, 16.84, 19.08, 18.33, 16.6, 13.07, 10.62, 10.62, 13.57, 14.53, 15.55, 13.56, 10.63, 9.22, 8.2, 7.43, 7.54, 6.57, 7.64, 8.42, 8.12, 8.9, 9.56, 9.57, 9.56, 9.56, 8.93, 8.93, 4.38, 4.38, 4.38, 5.63, 5.45, 5.45, 4.87, 5.02, 3.47, 3.58, 3.69, 4.18, 4.18, 4.81, 2.5, 2.15, 2.09, 2.09, 2.09, 4.18, 2.57, -0.0, -0.0, -0.0, 1.83, 1.89, -0.0, -0.0, -0.0, -0.0, -0.0, -0.0, -0.0, -0.0, -0.0, 2.5, 2.98, 5.48, 4.65, 5.52, 5.29, 6.14, 6.64, 7.33, 7.89, 7.45, 7.52, 7.12, 6.82, 6.44, 6.44, 7.68, 5.69, 5.69, 5.31, 5.31, 6.32, 6.11, 6.95, 6.3, 6.95, 5.53, 6.73, 7.4, 6.64, 6.04, 5.9, 5.9, 6.83, 8.82, 10.68, 14.4, 19.73, 17.13, 18.87, 19.6, 19.03, 15.91, 13.79, 11.62, 14.51, 11.54, 7.38, 7.0, 7.59, 7.18, 6.98, 6.57, 7.64, 8.16, 9.56, 9.57, 9.57, 10.04, 8.94, 9.3, 8.93, 8.93, 4.87, 4.87, 4.71, 6.0, 6.0, 6.0, 6.2, 5.02, 5.18, 3.58, 4.05, 4.18, 4.81, 4.3, 2.21, 2.15, 2.43, 2.43, 2.43, 4.81, 4.3, 2.34, -0.0, -0.0, 2.0, 1.89, 1.94, -0.0, -0.0, -0.0, -0.0, -0.0, -0.0, -0.0, -0.0, -0.0, 2.5, 2.5, 4.38, 5.0, 5.29, 6.42, 6.95, 7.33, 8.3, 7.94, 8.05, 7.52, 7.4, 7.37, 7.37, 6.6, 7.15, 5.37, 6.01, 6.01, 6.63, 6.01, 5.59, 6.95, 6.95, 7.9, 6.79, 7.15, 5.89, 5.06, 5.9, 6.7, 8.12, 9.36, 10.18, 13.8, 16.27, 18.73, 17.43, 19.08, 19.44, 19.22, 16.09, 11.62, 9.48, -0.0, 1.94, 6.17, 6.9, 6.67, 6.57, 7.36, 8.12, 8.9, 9.89, 9.92, 9.57, 9.56, 9.21, 9.34, 9.27, 9.27, 6.0, 6.0, 6.0, 6.0, 6.0, 6.2, 6.2, 6.4, 5.81, 5.81, 5.81, 4.18, 4.18, 4.3, 2.21, 2.15, 2.43, 2.43, 2.43, 2.5, 4.3, 2.28, 2.05, 2.11, 2.05, 2.0, 1.94, 2.0, -0.0, -0.0, -0.0, -0.0, -0.0, -0.0, -0.0, -0.0, -0.0, 3.07, 2.98, 5.15, 4.32, 5.29, 6.95, 7.81, 8.48, 8.49, 8.49, 7.89, 7.47, 6.9, 6.28, 6.7, 5.95, 5.49, 5.95, 5.49, 6.63, 5.69, 4.68, 5.24, 8.18, 7.51, 8.55, 6.01, 5.98, 5.21, 5.9, 7.68, 8.79, 9.77, 10.68, 11.84, 14.4, 16.71, 17.35, 15.52, 20.08, 18.41, 16.41, 11.45, -0.0, -7.36, -0.0, 3.1, 6.21, 7.24, 8.01, 8.42, 9.26, 8.93, 9.56, 10.19, 9.96, 10.01, 9.57, 9.92, 9.57, 9.57, 6.65, 6.65, 6.0, 6.0, 6.0, 7.34, 6.2, 7.1, 7.32, 5.81, 5.81, 5.99, 4.18, 4.3, 4.3, 4.95, 2.43, 2.43, 2.15, 2.21, 2.21, 2.28, 2.05, 2.05, 2.05, 2.05, 1.78, 3.79, 4.3, -0.0, -0.0, -0.0, 2.28, -0.0, -0.0, -0.0, -0.0, 3.07, 3.07, 5.48, 4.81, 5.52, 6.01, 7.64, 8.4, 8.4, 0.0, 8.49, 6.7, 5.37, 5.69, 6.28, 6.32, 6.32, 6.4, 6.0, 6.52, 5.69, 4.87, 5.69, 6.82, 8.21, 8.6, 6.32, 5.21, 6.24, 7.68, 8.43, 9.36, 10.6, 11.33, 11.95, 12.94, 14.09, 15.84, 16.46, 16.74, 16.28, 13.07, 10.4, 6.44, -6.2, -2.37, 4.52, 7.2, 8.3, 8.79, 9.89, 9.96, 9.26, 10.01, 10.66, 10.63, 10.55, 10.55, 10.73, 10.53, 10.53, 6.65, 6.65, 6.65, 6.65, 7.11, 8.05, 8.05, 7.1, 7.32, 7.32, 6.6, 5.99, 4.18, 4.3, 4.3, 4.95, 2.15, 2.09, 2.15, 2.21, 2.21, 2.21, 2.28, 2.34, -0.0, -0.0, 2.0, 3.79, 4.3, 2.21, -0.0, -0.0, 2.28, 2.28, -0.0, -0.0, -0.0, 2.65, 3.07, 5.81, 5.15, 4.15, 4.83, 5.06, 5.06, 8.94, -3.11, -10.28, -0.0, 3.4, 4.56, 6.28, 6.32, 5.58, 6.79, 6.36, 6.4, 6.08, 5.06, 5.84, 6.55, 8.0, 7.51, 6.18, 6.04, 7.68, 8.79, 9.2, 8.99, 9.97, 11.51, 12.41, 12.49, 12.52, 13.83, 16.34, 16.44, 14.58, 12.79, 12.18, 9.85, 7.81, 6.5, 5.14, 7.63, 8.79, 9.53, 10.63, 10.66, 10.01, 10.41, 10.66, 11.04, 10.79, 11.12, 11.5, 11.44, 11.44, 6.65, 6.65, 6.65, 6.65, 7.79, 8.05, 8.05, 8.31, 7.32, 8.18, 8.18, 5.81, 4.18, 6.16, 6.16, 4.3, 4.3, 2.15, 2.15, 4.18, 4.3, 4.18, 4.3, 2.28, -0.0, -0.0, -0.0, 2.21, 4.3, 2.21, -0.0, -0.0, 2.21, 2.21, -0.0, -0.0, -0.0, 2.65, 3.07, 5.81, 5.48, 4.65, 6.17, 4.37, 4.58, 7.51, 10.4, -0.0, 1.84, 3.11, 3.91, 4.11, 5.59, 5.58, 5.6, 6.79, 7.08, 6.45, 6.4, 5.58, 6.21, 8.0, 6.79, 6.32, 7.06, 7.76, 8.42, 9.32, 8.91, 9.21, 10.56, 11.11, 12.8, 13.65, 15.2, 18.29, 18.45, 15.27, 12.87, 13.35, 13.43, 9.2, 6.32, 6.06, 6.67, 10.18, 10.55, 11.04, 10.65, 10.94, 10.68, 11.37, 11.62, 11.99, 11.99, 12.7, 12.56, 12.56, 7.44, 7.44, 6.65, 7.79, 7.79, 8.05, 8.05, 8.31, 9.44, 8.18, 8.18, 6.6, 5.99, 6.16, 6.16, 6.16, 4.3, 3.69, 4.18, 4.18, 4.18, 4.18, 4.18, 2.21, 2.28, -0.0, -0.0, -0.0, 2.5, 2.15, -0.0, 2.21, 2.15, 2.5, -0.0, -0.0, -0.0, 2.57, 3.07, 3.07, 5.64, 6.0, 6.71, 6.64, 6.44, 7.87, 9.48, 7.79, 6.21, 5.95, 4.75, 3.84, 3.83, 4.8, 4.4, 6.45, 7.08, 7.6, 7.5, 6.61, 7.31, 7.95, 7.58, 7.81, 8.21, 7.82, 8.4, 9.32, 9.45, 9.33, 8.91, 9.42, 12.23, 15.1, 17.22, 19.22, 19.17, 15.68, 13.05, 13.59, 14.36, 14.33, 10.3, 8.86, 8.45, 9.32, 9.45, 11.45, 11.23, 10.8, 10.96, 11.84, 12.53, 12.96, 12.98, 12.87, 12.45, 12.45, 8.59, 8.59, 7.79, 7.79, 7.79, 8.05, 8.05, 8.31, 9.44, 9.44, 9.44, 7.32, 5.81, 5.99, 7.76, 6.16, 3.79, 3.79, 3.79, 5.99, 5.99, 4.18, 4.3, 4.3, 2.21, -0.0, -0.0, -0.0, -0.0, 2.35, 2.15, 2.21, 2.5, 2.5, -0.0, -0.0, -0.0, 3.07, 3.07, 3.07, 7.0, 6.4, 8.22, 8.18, 9.54, 9.96, 10.04, 10.91, 9.62, 6.64, 5.24, 5.37, 5.4, 5.51, 5.09, 5.16, 6.45, 7.08, 7.6, 7.15, 7.15, 7.37, 8.17, 7.89, 8.3, 8.56, 8.29, 9.46, 10.05, 9.86, 8.21, 8.43, 12.25, 16.0, 20.27, 22.21, 17.23, 12.14, 12.52, 12.39, 14.03, 14.95, 14.99, 12.58, 12.21, 11.8, 11.51, 10.7, 12.04, 11.6, 12.04, 12.48, 12.85, 12.85, 12.96, 12.96, 12.89, 12.89, 8.59, 8.59, 8.59, 8.59, 8.59, 8.87, 8.87, 10.12, 10.43, 10.43, 9.44, 7.32, 5.18, 5.18, 7.76, 6.16, 5.49, 6.16, 6.16, 5.99, 6.16, 4.3, 4.3, 4.18, 2.21, 2.21, -0.0, -0.0, -0.0, -0.0, 2.35, 2.5, 2.57, 2.57, -0.0, -0.0, -0.0, 2.98, 3.07, 3.79, 7.0, 10.43, 10.41, 8.55, 9.97, 10.84, 10.79, 11.12, 9.08, 6.63, 7.28, 6.9, 7.21, 6.79, 6.36, 6.02, 5.64, 6.2, 6.71, 6.26, 5.36, 7.12, 8.6, 7.63, 8.06, 8.14, 8.29, 8.33, 9.97, 10.05, 8.95, 9.66, 10.84, 14.99, 20.97, 25.22, 14.69, 10.68, 11.03, 12.14, 13.49, 14.75, 16.05, 16.26, 14.27, 14.3, 12.96, 11.59, 12.48, 12.07, 12.52, 12.52, 12.52, 12.93, 12.83, 12.63, 11.96, 11.96, 8.3, 8.3, 8.59, 8.59, 8.59, 8.87, 8.87, 10.12, 10.12, 10.43, 9.44, 7.32, 5.18, 5.18, 7.54, 7.0, 7.76, 5.99, 5.99, 6.16, 6.16, 4.3, 4.3, 4.18, 4.18, 2.21, 2.57, -0.0, -0.0, -0.0, 2.43, 2.43, 2.43, 2.5, 2.5, -0.0, -0.0, 2.98, 3.07, 7.0, 7.0, 10.75, 11.16, 9.6, 9.97, 10.84, 11.28, 11.2, 9.66, 7.51, 7.67, 8.3, 8.06, 7.94, 7.5, 7.08, 6.51, 6.07, 5.77, 5.36, 7.6, 7.47, 7.6, 8.0, 7.2, 8.06, 8.06, 8.06, 9.46, 10.05, 9.36, 10.46, 11.55, 13.38, 19.03, 23.29, 18.66, 12.96, 12.14, 13.21, 14.53, 15.98, 16.41, 16.95, 17.43, 14.3, 13.25, 11.28, 12.68, 12.37, 12.03, 12.07, 12.07, 12.52, 12.37, 12.37, 12.2, 12.2, 8.3, 8.3, 8.59, 8.59, 8.59, 8.59, 8.87, 10.12, 10.12, 10.43, 9.44, 7.32, 5.18, 7.32, 7.54, 7.76, 7.54, 7.54, 7.54, 6.16, 6.16, 4.3, 4.3, 4.3, 4.18, 4.18, 2.57, -0.0, -0.0, -0.0, -0.0, 2.35, 2.35, 2.35, 2.43, 2.5, -0.0, 2.5, 2.98, 7.0, 7.0, 10.75, 11.09, 11.28, 10.28, 10.73, 11.03, 10.04, 10.8, 9.2, 8.8, 8.72, 8.06, 8.38, 7.94, 7.52, 7.52, 6.94, 6.55, 5.33, 4.88, 7.47, 6.9, 7.6, 8.0, 8.48, 7.76, 8.3, 8.72, 9.66, 9.75, 11.03, 12.27, 12.85, 15.87, 17.13, 18.46, 18.01, 15.34, 15.16, 15.17, 16.06, 16.06, 15.65, 15.65, 12.96, 12.91, 13.81, 12.47, 12.07, 11.62, 11.13, 11.57, 11.91, 11.76, 11.76, 11.71, 11.71, 8.3, 8.3, 8.59, 8.59, 8.59, 8.59, 8.87, 9.8, 10.86, 10.86, 10.43, 7.32, 7.32, 7.32, 7.32, 7.54, 7.54, 8.43, 8.43, 6.16, 6.16, 4.3, 4.3, 4.3, 4.3, 4.18, 4.81, 2.5, -0.0, -0.0, -0.0, 2.43, 2.35, 2.28, 2.35, -0.0, -0.0, -0.0, 2.98, 6.8, 6.8, 9.12, 10.12, 11.71, 10.28, 10.28, 7.59, 8.22, 10.04, 9.3, 8.8, 9.13, 8.72, 8.82, 7.94, 7.97, 7.97, 7.54, 7.11, 5.78, 5.32, 4.88, 7.94, 7.37, 8.29, 9.03, 8.06, 8.99, 9.24, 9.49, 10.91, 10.18, 13.19, 13.15, 14.09, 14.64, 15.94, 17.39, 19.95, 20.6, 18.56, 15.02, 13.25, 12.81, 13.25, 13.01, 12.51, 11.64, 10.92, 10.5, 10.6, 10.6, 10.84, 11.28, 11.76, 11.76, 11.54, 11.54, 9.17, 9.17, 8.59, 8.59, 8.59, 8.59, 8.87, 9.8, 10.86, 10.86, 10.12, 9.44, 7.32, 5.81, 5.81, 7.54, 8.43, 8.43, 5.99, 6.16, 6.16, 4.3, 4.3, 4.3, 4.18, 4.81, 4.81, 2.5, 2.43, 2.43, 2.89, 2.89, 2.81, 2.72, -0.0, -0.0, -0.0, -0.0, 2.89, 6.8, 6.8, 9.12, 10.82, 9.67, 0.0, -8.4, -7.27, -0.0, 6.45, 9.67, 9.6, 9.2, 9.64, 9.26, 8.38, 7.97, 7.97, 7.98, 7.11, 6.22, 5.33, 4.92, 8.05, 7.54, 8.29, 9.29, 8.33, 8.77, 9.35, 9.24, 9.49, 10.68, 12.94, 13.8, 14.9, 14.06, 13.72, 15.69, 20.59, 22.05, 19.34, 14.81, 11.71, 11.45, 11.55, 11.2, 11.2, 10.0, 10.32, 10.68, 10.68, 10.68, 10.89, 11.28, 11.91, 11.93, 11.93, 11.76, 9.17, 9.17, 8.3, 8.59, 8.59, 8.59, 8.87, 9.8, 11.64, 11.64, 10.12, 9.16, 7.1, 7.1, 7.32, 7.54, 8.43, 8.43, 5.99, 6.16, 6.16, 6.16, 4.3, 4.3, 4.3, 4.81, 4.81, 4.81, 2.43, 2.43, 2.81, 2.81, 2.81, 2.72, -0.0, -0.0, -0.0, -0.0, 2.89, 6.6, 6.6, 6.8, 8.05, 6.44, -0.0, -10.28, -7.9, -0.0, 2.93, 6.7, 9.67, 10.84, 10.52, 9.21, 8.38, 7.94, 8.41, 8.43, 7.55, 6.66, 5.36, 4.92, 7.94, 7.1, 8.0, 9.29, 8.85, 8.33, 8.77, 9.21, 9.06, 10.88, 12.42, 13.23, 17.41, 14.62, 14.18, 15.85, 19.64, 19.63, 16.84, 14.19, 12.38, 11.6, 11.2, 11.41, 11.92, 11.18, 11.36, 11.51, 11.49, 11.05, 11.05, 11.58, 12.03, 12.03, 12.03, 11.93, 9.17, 9.17, 9.17, 8.59, 8.59, 8.59, 9.48, 10.65, 11.64, 11.64, 10.99, 9.16, 7.1, 7.1, 7.32, 7.32, 7.54, 7.54, 5.99, 5.99, 6.16, 6.16, 4.3, 4.18, 4.81, 4.66, 4.66, 4.66, 2.43, 2.89, 2.81, 2.81, 2.81, -0.0, -0.0, -0.0, -0.0, -0.0, 3.47, 3.47, 8.18, 8.18, 6.0, 6.44, 6.95, 5.2, -0.0, -0.0, 3.14, 9.17, 10.41, 10.8, 10.84, 10.08, 8.38, 7.94, 8.41, 8.43, 7.55, 6.71, 5.81, 4.92, 5.36, 8.38, 8.38, 8.85, 8.0, 8.77, 8.56, 8.99, 9.24, 9.66, 11.99, 13.02, 15.27, 16.41, 15.49, 15.61, 16.61, 14.61, 12.58, 12.18, 12.2, 11.41, 11.92, 11.87, 12.27, 11.96, 11.59, 11.59, 11.59, 11.14, 11.14, 11.62, 12.07, 12.01, 11.57, 12.03, 9.17, 9.17, 9.17, 9.17, 8.59, 9.48, 10.3, 10.65, 11.28, 12.42, 10.99, 9.16, 7.1, 7.1, 7.32, 7.32, 7.54, 7.54, 5.99, 5.99, 5.99, 5.99, 6.16, 6.16, 4.81, 4.66, 4.66, 4.66, 4.66, 5.48, 5.31, 2.72, 2.72, -0.0, -0.0, -0.0, -0.0, -0.0, -0.0, 4.38, 7.93, 8.18, 7.69, 6.45, 8.58, 10.37, 6.4, 5.31, 8.31, 9.48, 11.16, 10.41, 11.28, 10.41, 8.94, 8.05, 8.49, 8.49, 8.05, 7.15, 6.26, 4.92, 7.6, 7.6, 7.94, 8.38, 8.29, 9.29, 8.06, 8.72, 9.24, 9.24, 11.35, 11.99, 13.44, 15.27, 18.26, 18.48, 14.53, 10.32, 10.4, 10.8, 11.21, 11.87, 11.66, 11.53, 12.05, 11.62, 11.62, 11.18, 11.18, 11.18, 11.18, 11.62, 11.55, 11.18, 11.03, 11.03, 9.17, 9.17, 9.17, 9.17, 9.17, 9.48, 10.3, 11.28, 12.03, 12.03, 10.65, 9.16, 8.31, 7.1, 7.1, 7.32, 7.32, 7.54, 7.32, 5.99, 5.99, 5.99, 5.99, 5.99, 6.8, 4.66, 4.66, 4.66, 5.48, 5.48, 5.31, 2.72, 2.72, 2.72, -0.0, -0.0, -0.0, -0.0, -0.0, 4.38, 4.52, 7.93, 7.69, 8.53, 9.67, 10.01, 11.17, 9.8, 10.37, 10.37, 11.6, 10.8, 10.84, 9.54, 8.49, 8.05, 8.49, 8.49, 8.05, 7.6, 6.71, 5.81, 4.92, 8.05, 7.94, 8.06, 8.48, 8.6, 7.76, 8.72, 9.24, 9.49, 10.91, 10.41, 12.85, 13.43, 16.99, 20.63, 16.79, 11.02, 10.94, 11.47, 11.72, 12.53, 12.74, 12.49, 11.62, 11.62, 11.15, 11.14, 11.14, 11.18, 11.62, 11.09, 9.97, 9.3, 9.3, 9.3, 9.17, 9.17, 9.17, 9.17, 9.17, 9.48, 11.16, 11.64, 12.03, 11.53, 10.65, 8.87, 8.31, 8.31, 7.1, 7.32, 7.32, 7.32, 7.32, 5.99, 5.99, 5.99, 5.99, 6.8, 6.6, 4.52, 4.66, 4.66, 5.48, 5.48, 5.31, 5.15, 2.72, 2.63, 2.63, -0.0, -0.0, -0.0, 3.36, 4.38, 4.52, 4.52, 7.69, 8.85, 10.04, 10.41, 11.99, 11.6, 10.8, 10.4, 10.0, 10.0, 9.97, 8.67, 8.24, 8.05, 8.05, 8.05, 8.05, 7.6, 7.15, 6.26, 5.33, 8.05, 7.94, 8.06, 8.0, 8.0, 7.76, 8.3, 8.99, 9.24, 9.68, 10.6, 11.33, 12.3, 13.75, 16.79, 18.31, 16.96, 14.99, 15.07, 14.93, 13.88, 13.62, 13.31, 12.52, 12.52, 12.48, 11.88, 12.0, 11.62, 11.45, 10.35, 9.66, 10.4, 10.4, 10.4, 8.85, 8.85, 9.17, 9.17, 9.17, 10.12, 11.16, 11.64, 11.64, 11.53, 10.65, 8.87, 9.16, 9.16, 7.93, 8.18, 8.18, 8.18, 5.81, 5.81, 5.99, 5.99, 5.99, 6.8, 6.8, 6.6, 4.66, 4.66, 5.48, 5.48, 5.31, 5.31, 2.72, 2.72, 2.63, -0.0, -0.0, 2.72, 3.36, 3.36, 4.52, 4.52, 7.69, 9.17, 8.53, 10.04, 10.41, 10.41, 10.4, 9.6, 8.8, 8.4, 7.6, 8.24, 8.24, 8.05, 7.6, 7.6, 7.6, 7.6, 7.15, 6.71, 5.78, 5.36, 8.38, 8.06, 8.48, 7.63, 8.17, 8.56, 9.74, 8.9, 9.24, 10.14, 10.89, 11.61, 12.98, 13.75, 15.77, 17.14, 19.19, 20.07, 19.25, 16.96, 13.39, 12.71, 12.85, 12.96, 12.96, 12.52, 13.41, 10.38, 10.35, 10.35, 9.97, 10.4, 10.4, 10.4, 9.77, 9.77, 9.77, 10.12, 10.12, 10.79, 11.99, 12.33, 11.16, 11.53, 10.65, 9.8, 9.16, 9.16, 7.93, 8.18, 8.18, 8.18, 5.81, 5.81, 5.81, 5.81, 5.99, 6.8, 6.6, 6.6, 6.6, 4.66, 4.66, 5.48, 5.31, 5.31, 5.15, 2.72, 2.63, 2.63, -0.0, 2.72, 3.36, 3.36, 4.38, 7.93, 7.69, 9.48, 8.85, 10.04, 10.41, 10.41, 10.04, 10.0, 9.97, 8.67, 7.81, 7.81, 7.81, 8.05, 8.05, 7.6, 7.15, 7.15, 6.71, 6.71, 5.81, 5.81, 5.81, 8.82, 8.38, 8.0, 8.45, 8.9, 8.9, 9.35, 9.68, 9.97, 10.89, 11.61, 12.3, 12.98, 13.11, 13.99, 15.99, 20.79, 22.6, 18.9, 16.12, 13.82, 12.68, 12.88, 12.96, 9.48, 11.45, 9.6, 10.79, 9.97, 9.08, 8.94, 8.94, 8.94, 9.77, 9.77, 9.77, 10.12, 10.12, 11.6, 11.6, 12.33, 11.16, 11.53, 10.65, 9.8, 8.87, 7.93, 7.93, 7.93, 7.93, 5.63, 5.63, 5.63, 5.81, 5.81, 5.81, 6.8, 6.8, 6.6, 6.4, 6.6, 4.66, 4.66, 5.48, 5.31, 5.31, 2.72, 2.63, 2.63, 2.63, 2.63, 3.36, 3.36, 6.2, 7.69, 7.69, 7.44, 9.17, 10.04, 10.41, 10.41, 10.41, 11.03, 10.41, 9.11, 8.67, 7.81, 7.89, 7.89, 7.6, 7.6, 7.15, 6.71, 6.26, 6.26, 5.81, 5.81, 5.36, 8.49, 8.49, 8.49, 8.94, 8.45, 8.9, 9.24, 9.68, 10.41, 10.89, 11.11, 12.04, 12.3, 12.45, 12.15, 13.19, 17.19, 21.87, 22.19, 18.94, 17.19, 14.66, 11.6, -0.0, 10.04, 11.28, 10.0, 8.94, 7.59, 8.38, 8.38, 8.38, 8.38, 9.77, 9.77, 9.77, 10.73, 11.12, 11.6, 11.6, 11.99, 11.99, 11.16, 9.8, 8.87, 7.69, 7.93, 7.93, 7.93, 7.1, 5.63, 5.63, 5.63, 5.81, 5.81, 5.99, 6.8, 6.8, 6.6, 6.4, 6.2, 6.4, 6.4, 5.48, 5.48, 5.31, 2.72, 2.2, 2.63, 2.63, 2.63, 3.25, 3.25, 6.0, 7.69, 7.69, 7.44, 7.19, 8.85, 10.79, 10.41, 10.41, 9.67, 10.18, 9.97, 9.11, 8.67, 7.89, 7.89, 7.6, 7.6, 7.15, 6.71, 6.26, 6.26, 6.26, 5.81, 5.36, 8.05, 7.94, 8.38, 8.85, 8.33, 9.24, 9.24, 10.14, 10.58, 10.45, 10.89, 11.18, 11.79, 12.04, 12.04, 12.56, 13.59, 17.75, 21.19, 22.95, 19.51, 16.32, 10.12, 8.53, 11.45, 11.28, 9.3, 8.58, 7.27, 8.38, 8.38, 8.38, 8.38, 9.77, 9.77, 10.73, 10.73, 10.73, 11.6, 12.3, 12.72, 11.99, 11.16, 9.8, 7.69, 7.69, 7.93, 7.93, 7.93, 5.63, 5.02, 5.02, 5.63, 5.63, 5.81, 5.81, 5.81, 6.6, 6.6, 6.4, 6.2, 6.2, 7.13, 5.15, 5.31, 4.52, 2.28, 2.2, 2.63, 2.63, 2.63, 3.25, 3.25, 6.0, 6.0, 7.69, 7.44, 7.19, 6.94, 10.79, 10.79, 10.04, 9.67, 10.18, 9.75, 9.54, 9.11, 8.05, 8.05, 8.05, 8.05, 7.6, 6.71, 6.71, 6.71, 6.26, 5.81, 5.36, 7.15, 7.54, 7.85, 8.29, 8.77, 9.35, 9.35, 9.8, 10.14, 10.58, 10.89, 10.89, 11.61, 11.5, 11.6, 11.99, 12.23, 13.03, 17.47, 20.39, 21.17, 10.43, 4.8, 7.9, 9.3, 9.3, 7.59, 8.23, 8.82, 8.03, 7.27, 7.27, 7.27, 11.2, 10.8, 11.2, 10.73, 11.87, 12.3, 12.46, 12.46, 11.99, 10.47, 9.8, 7.69, 7.93, 7.93, 7.69, 6.88, 5.46, 4.87, 4.87, 5.63, 5.63, 5.81, 5.81, 5.81, 5.81, 5.81, 6.4, 6.4, 6.2, 6.9, 4.98, 4.24, 4.38, 2.28, 2.2, 2.54, 2.54, 2.54, 3.14, 5.8, 6.0, 6.0, 7.44, 7.44, 7.19, 7.19, 10.79, 10.41, 10.04, 9.67, 10.18, 9.75, 9.54, 8.94, 8.49, 8.49, 8.05, 8.05, 7.6, 6.71, 6.71, 6.71, 6.26, 5.81, 5.32, 6.71, 7.08, 7.37, 7.85, 8.29, 8.77, 8.9, 9.35, 10.25, 10.58, 10.6, 10.89, 11.11, 10.96, 11.92, 11.6, 11.6, 11.64, 13.41, 18.79, 17.97, 13.8, 3.25, 5.46, 7.87, 8.58, 7.27, 8.58, 9.2, 8.03, 7.68, 7.68, 7.68, 10.8, 10.8, 11.45, 11.87, 11.87, 11.87, 12.83, 12.3, 11.99, 9.48, 7.69, 7.69, 7.93, 7.93, 6.88, 5.28, 4.71, 4.87, 5.63, 5.63, 5.63, 5.63, 5.81, 5.81, 5.81, 5.81, 6.4, 6.4, 6.2, 6.2, 4.24, 4.24, 4.24, 2.2, 2.13, 2.54, 2.54, 2.54, 3.14, 5.8, 5.8, 5.8, 6.0, 7.44, 7.19, 7.19, 10.41, 10.41, 10.04, 9.67, 8.93, 9.33, 9.54, 9.39, 8.94, 8.05, 8.05, 7.6, 7.6, 7.15, 6.71, 6.71, 6.71, 6.21, 5.77, 4.92, 6.71, 7.08, 7.37, 7.63, 8.06, 8.56, 9.21, 9.21, 10.25, 10.58, 10.18, 10.32, 10.85, 10.96, 11.5, 10.96, 11.5, 12.87, 20.75, 19.51, 15.61, 8.22, 4.2, 6.32, 7.51, 7.87, 7.87, 8.82, 8.43, 7.33, 7.33, 7.33, 11.45, 11.45, 11.45, 11.45, 12.35, 12.35, 12.39, 12.3, 10.12, 8.38, 7.69, 7.69, 7.93, 7.69, 5.28, 5.28, 5.46, 5.46, 5.63, 5.63, 7.1, 5.63, 5.81, 5.81, 5.81, 5.63, 6.4, 6.2, 6.2, 6.2, 4.24, 4.24, 4.24, 4.24, 2.54, 2.54, 2.54, 2.45, 2.45, 5.8, 5.8, 5.8, 5.8, 7.19, 7.19, 7.19, 8.85, 10.41, 10.04, 9.67, 10.18, 9.97, 9.97, 9.39, 8.94, 8.49, 8.05, 7.6, 7.15, 7.15, 6.71, 6.71, 6.71, 6.71, 5.77, 4.73, 7.08, 6.71, 7.37, 7.53, 7.76, 8.17, 8.17, 8.17, 9.42, 9.24, 9.77, 10.0, 10.32, 10.43, 10.55, 10.55, 11.37, 18.52, 21.46, 19.75, 17.02, 13.44, 11.62, 9.2, 7.44, 6.01, 6.32, 7.15, 7.67, 7.67, 7.67, 7.67, 11.45, 11.45, 11.45, 11.91, 12.35, 12.39, 12.39, 11.6, 10.12, 8.38, 8.66, 7.69, 6.2, 6.2, 5.28, 3.68, 3.81, 5.46, 5.46, 5.63, 7.1, 5.63, 7.32, 7.32, 7.32, 7.1, 7.93, 7.69, 6.2, 6.0, 6.0, 4.24, 4.24, 4.98, 4.81, 2.45, 2.45, 4.65, 4.65, 5.6, 5.8, 5.8, 7.19, 7.19, 7.19, 7.19, 8.85, 10.41, 10.04, 11.03, 10.18, 10.28, 9.83, 9.39, 8.94, 8.49, 8.49, 8.05, 7.6, 7.15, 6.71, 6.71, 6.71, 6.71, 6.21, 5.16, 4.85, 4.92, 7.54, 7.81, 8.29, 8.29, 8.56, 8.72, 8.21, 8.43, 8.82, 9.42, 9.9, 9.9, 10.32, 10.55, 13.15, 18.1, 22.05, 19.41, 16.66, 13.67, 11.87, 10.4, 8.93, 7.44, 6.7, 7.6, 6.44, 6.44, 6.44, 6.44, 11.91, 11.91, 11.91, 11.91, 11.95, 12.39, 11.87, 11.6, 9.17, 8.38, 6.9, 6.9, 6.0, 6.0, 5.11, 3.68, 5.46, 5.46, 6.2, 5.63, 5.63, 7.1, 7.1, 7.1, 7.1, 7.1, 7.69, 7.69, 7.69, 7.44, 5.8, 6.9, 4.98, 4.98, 4.81, 4.65, 4.65, 4.65, 5.4, 5.6, 5.6, 5.6, 7.19, 7.19, 7.19, 6.94, 8.85, 10.41, 11.87, 11.03, 10.73, 10.28, 9.83, 9.39, 8.94, 8.24, 8.33, 7.89, 7.5, 7.5, 7.08, 7.08, 6.71, 6.71, 6.65, 6.21, 5.59, 5.31, 7.15, 7.6, 8.0, 8.44, 8.77, 8.99, 8.72, 8.72, 8.8, 9.36, 9.9, 9.9, 9.9, 10.4, 12.45, 15.61, 20.17, 18.66, 15.27, 11.72, 10.46, 9.86, 10.0, 9.2, 6.32, 7.2, 7.6, 6.8, 6.8, 6.8, 11.51, 11.51, 11.95, 12.07, 12.07, 11.95, 11.87, 11.6, 8.85, 9.17, 6.67, 6.67, 5.8, 5.8, 5.8, 6.0, 6.2, 6.2, 6.2, 5.46, 5.63, 7.1, 7.1, 7.1, 7.1, 7.1, 7.69, 7.69, 7.44, 7.44, 8.1, 6.9, 6.9, 4.98, 4.81, 4.65, 4.65, 4.65, 5.4, 5.4, 5.6, 6.94, 6.94, 6.94, 6.94, 8.85, 10.41, 11.87, 11.87, 11.62, 10.73, 10.28, 9.83, 9.39, 8.94, 8.24, 8.33, 7.89, 7.45, 7.5, 7.5, 7.08, 6.64, 7.1, 7.1, 6.21, 5.64, 5.59, 5.75, 7.6, 8.05, 8.44, 8.9, 8.77, 8.99, 8.99, 8.99, 9.24, 9.75, 9.9, 9.9, 10.96, 11.6, 12.56, 17.52, 17.85, 14.79, 11.6, 8.55, 8.4, 9.2, 9.2, 8.22, 7.28, 7.15, 7.15, 7.15, 7.15, 11.51, 11.51, 11.62, 12.07, 11.62, 11.95, 11.45, 10.73, 8.85, 8.85, 6.67, 6.67, 6.67, 5.8, 5.8, 6.0, 6.2, 6.2, 6.2, 5.46, 6.88, 7.1, 7.1, 7.1, 8.31, 8.05, 8.05, 7.44, 8.59, 7.44, 8.1, 8.38, 6.9, 6.67, 4.81, 4.65, 4.65, 5.4, 5.4, 5.4, 5.6, 6.94, 6.94, 6.94, 6.94, 8.85, 11.87, 11.87, 11.87, 11.62, 10.73, 10.28, 9.83, 9.39, 9.39, 8.94, 8.33, 8.33, 7.89, 7.5, 7.5, 7.08, 7.08, 7.1, 7.1, 6.51, 6.07, 5.34, 5.34, 7.31, 8.05, 8.05, 8.44, 8.33, 8.56, 8.56, 8.56, 9.49, 9.49, 9.66, 10.0, 10.55, 11.5, 12.98, 14.94, 17.5, 15.19, 13.02, 8.55, 8.14, 8.14, 8.55, 8.21, 7.76, 6.98, 6.98, 6.98, 6.98, 11.62, 11.62, 11.62, 11.62, 11.62, 11.91, 11.45, 10.35, 10.35, 8.85, 6.44, 6.67, 6.67, 6.67, 6.67, 6.0, 6.0, 6.2, 6.2, 6.88, 6.88, 7.1, 7.1, 8.31, 8.05, 8.05, 8.05, 8.59, 8.59, 8.3, 7.19, 8.38, 8.38, 6.67, 6.44, 4.65, 5.4, 5.4, 5.4, 5.4, 5.6, 6.94, 6.94, 6.7, 6.7, 10.04, 10.41, 11.87, 11.87, 11.03, 10.73, 10.28, 9.83, 9.83, 9.39, 8.94, 8.33, 7.89, 7.89, 7.5, 7.06, 7.08, 7.08, 7.54, 7.37, 6.94, 6.07, 5.75, 5.43, 7.4, 7.98, 8.05, 8.0, 8.29, 8.06, 8.56, 8.56, 8.56, 8.99, 9.36, 9.9, 10.85, 11.79, 12.72, 13.99, 16.92, 16.6, 13.84, 11.39, 8.4, 8.4, 8.14, 8.0, 7.58, 7.28, 6.32, 6.32, 6.32, 11.18, 11.18, 11.18, 11.62, 11.62, 11.62, 11.46, 11.21, 10.35, 8.85, 8.85, 7.78, 6.67, 6.67, 6.67, 6.0, 6.2, 6.0, 6.88, 6.88, 6.88, 7.1, 7.1, 8.31, 8.05, 8.05, 7.79, 7.79, 8.59, 8.3, 8.3, 8.38, 8.38, 8.1, 6.44, 6.44, 7.24, 5.4, 5.4, 5.4, 5.4, 6.7, 6.7, 6.7, 8.53, 10.04, 10.04, 11.45, 11.45, 10.6, 10.18, 10.28, 10.28, 9.83, 9.39, 9.39, 8.77, 7.89, 7.89, 7.5, 7.5, 7.52, 7.52, 7.37, 7.37, 6.94, 6.28, 6.28, 6.07, 6.54, 7.01, 8.49, 8.0, 7.85, 8.06, 8.56, 8.56, 8.99, 9.49, 9.66, 10.18, 11.11, 11.61, 12.53, 13.57, 16.27, 16.28, 14.24, 13.02, 9.77, 8.14, 8.14, 8.0, 7.96, 7.28, 6.32, 6.32, 6.32, 11.18, 11.18, 11.18, 11.18, 11.18, 11.62, 11.46, 11.45, 10.35, 10.73, 8.85, 8.85, 8.1, 8.1, 7.19, 7.44, 7.44, 6.65, 6.65, 6.88, 6.88, 8.05, 8.31, 8.31, 8.05, 7.79, 7.79, 7.79, 8.3, 8.3, 8.3, 9.48, 8.38, 8.1, 7.82, 6.44, 7.24, 7.24, 7.24, 7.24, 8.53, 8.53, 8.53, 8.53, 8.22, 9.67, 9.67, 10.04, 11.03, 10.18, 10.41, 10.28, 10.28, 10.28, 9.83, 9.39, 8.77, 8.33, 8.33, 7.94, 7.5, 7.52, 7.31, 7.81, 7.81, 7.37, 6.7, 6.7, 6.07, 6.44, 6.94, 8.89, 8.05, 8.85, 7.85, 8.29, 8.77, 8.99, 9.06, 9.49, 10.18, 10.68, 11.61, 12.09, 13.15, 15.44, 15.46, 14.24, 13.02, 11.97, 8.55, 8.55, 8.4, 8.0, 7.82, 4.94, 4.94, 4.94, 11.18, 11.18, 11.18, 11.18, 11.18, 11.62, 11.46, 11.91, 11.45, 10.73, 9.77, 9.77, 9.17, 8.3, 8.3, 8.59, 7.79, 7.79, 7.79, 8.05, 8.05, 8.05, 8.05, 9.02, 9.02, 8.73, 8.73, 7.79, 8.3, 8.3, 8.3, 9.48, 9.17, 7.82, 7.82, 7.82, 8.53, 7.24, 6.97, 6.97, 8.53, 8.53, 8.22, 8.22, 9.3, 10.0, 10.0, 10.0, 10.84, 10.41, 10.28, 10.28, 10.28, 10.28, 9.83, 9.83, 9.21, 8.77, 8.33, 7.94, 7.94, 7.97, 7.74, 7.81, 7.81, 7.37, 6.79, 7.21, 6.8, 6.44, 6.64, 6.85, 6.71, 8.94, 7.98, 8.44, 8.9, 9.21, 9.24, 9.68, 9.97, 10.89, 11.11, 12.04, 12.3, 13.97, 14.39, 13.84, 13.02, 12.21, 10.99, 9.2, 8.24, 8.14, 7.2, 3.8, 3.8, 3.8, 11.18, 11.18, 11.18, 11.18, 11.18, 11.62, 11.46, 11.91, 11.45, 10.73, 9.77, 9.77, 9.17, 8.3, 8.3, 8.59, 7.79, 7.79, 7.79, 8.05, 8.05, 8.05, 8.05, 9.02, 9.02, 8.73, 8.73, 7.79, 8.3, 8.3, 8.3, 9.48, 9.17, 7.82, 7.82, 7.82, 8.53, 7.24, 6.97, 6.97, 8.53, 8.53, 8.22, 8.22, 9.3, 10.0, 10.0, 10.0, 10.84, 10.41, 10.28, 10.28, 10.28, 10.28, 9.83, 9.83, 9.21, 8.77, 8.33, 7.94, 7.94, 7.97, 7.74, 7.81, 7.81, 7.37, 6.79, 7.21, 6.8, 6.44, 6.64, 6.85, 6.71, 8.94, 7.98, 8.44, 8.77, 9.21, 9.24, 9.68, 9.97, 10.41, 10.68, 11.61, 11.79, 12.33, 13.38, 13.59, 12.56, 11.77, 11.38, 9.81, 9.03, 8.8, 7.15, 2.83, 2.83, 2.83]}, {"header": {"dx": 0.06612293990616946, "dy": 0.0552356325346848, "nx": 98, "ny": 59, "la1": 35.046912555036876, "la2": 31.78801023549047, "lo1": -121.43107172385933, "lo2": -114.95102361305473, "refTime": "2026041022", "parameterCategory": 1, "parameterNumber": 3}, "data": [13.72, 13.74, 13.74, 14.18, 14.18, 13.59, 13.39, 13.65, 13.39, 13.52, 12.23, 10.48, 9.42, 7.9, 7.27, 8.07, 9.77, 8.99, 10.05, 10.6, 10.6, 11.03, 9.03, 8.79, 9.04, 10.04, 10.4, 10.0, 9.9, 10.41, 10.58, 10.89, 11.09, 9.36, 2.8, -6.26, -6.4, -6.32, -5.37, 0.0, 8.99, 11.02, 11.35, 12.3, 13.07, 13.8, 15.35, 16.92, 15.53, 13.6, 10.63, 9.89, 9.06, 9.06, 8.66, 8.18, 8.59, 8.05, 8.31, 7.26, 7.26, 7.26, 6.76, 7.89, 10.38, 11.16, 11.39, 10.3, 9.48, 9.06, 8.18, 7.25, 5.8, 4.81, 4.21, 3.32, 2.61, 3.73, 9.8, -0.0, 0.0, -9.83, -9.83, -8.94, -8.49, 0.0, 0.0, 1.32, 3.8, 8.73, 11.56, 12.31, 12.51, 12.18, 11.6, 10.25, 8.69, 8.02, 13.82, 13.74, 13.74, 13.74, 14.18, 14.03, 14.03, 13.88, 14.08, 13.81, 12.29, 12.18, 9.4, 7.97, 8.82, 9.7, 9.55, 11.03, 10.6, 9.75, 11.56, 10.6, 10.0, 10.8, 9.42, 10.0, 10.32, 10.32, 10.6, 10.68, 11.05, 11.51, 11.8, 9.92, 6.26, -5.06, -8.05, -7.6, -3.8, 7.67, 11.93, 12.75, 12.71, 13.67, 15.02, 16.14, 17.32, 16.14, 14.09, 11.39, 9.89, 9.06, 9.06, 8.01, 8.01, 8.18, 8.87, 8.31, 8.31, 7.69, 7.26, 6.76, 7.62, 10.48, 11.41, 11.64, 11.03, 10.3, 9.48, 8.95, 7.93, 6.73, 4.87, 4.0, 2.45, 1.71, 2.28, 3.73, 9.8, -0.0, 0.0, -9.83, -9.83, -8.94, -8.49, 0.0, 0.0, 1.32, 3.8, 8.73, 11.56, 12.31, 12.51, 12.18, 11.6, 10.25, 8.69, 8.02, 13.82, 13.83, 13.83, 13.83, 14.18, 14.62, 14.47, 14.5, 14.79, 14.15, 11.8, 9.3, 9.67, 9.08, 8.79, 9.6, 10.84, 11.28, 10.84, 11.84, 10.45, 10.46, 10.46, 11.85, 12.04, 9.9, 9.75, 9.75, 10.41, 11.33, 11.51, 12.04, 12.04, 11.11, 7.15, 8.49, 8.06, 4.0, 7.87, 9.97, 12.3, 13.62, 15.47, 16.84, 17.86, 17.32, 17.32, 14.09, 11.76, 9.96, 9.48, 9.06, 9.06, 8.3, 8.37, 8.59, 8.59, 8.31, 8.31, 8.31, 7.44, 7.89, 10.12, 11.92, 12.15, 11.28, 10.63, 9.89, 9.36, 8.31, 7.23, 5.73, 4.87, 2.47, 0.83, 0.0, 2.28, 13.86, 7.13, 3.68, 10.28, 0.0, 0.0, 0.0, 0.0, -3.6, -1.84, 1.32, 5.21, 11.03, 13.27, 13.27, 12.45, 12.45, 11.12, 8.69, 7.13, 7.35, 13.82, 13.83, 14.27, 13.83, 14.27, 14.62, 15.07, 14.94, 14.97, 13.92, 11.87, 9.92, 10.18, 9.43, 10.17, 10.84, 11.49, 11.91, 11.49, 11.33, 10.41, 10.41, 10.88, 10.73, 10.96, 11.45, 9.92, 9.49, 10.14, 11.05, 11.59, 12.07, 12.07, 12.07, 10.28, 9.74, 9.46, 10.0, 10.92, 13.11, 15.74, 18.05, 18.37, 16.64, 15.59, 14.29, 10.79, 10.41, 10.01, 9.17, 8.49, 9.06, 9.06, 8.76, 8.76, 8.3, 9.02, 9.02, 8.78, 8.31, 8.05, 9.64, 11.68, 12.45, 12.23, 11.66, 10.58, 9.48, 9.02, 8.1, 6.6, 5.73, 4.87, 2.22, 0.0, 0.0, 11.62, 9.48, 8.05, 9.17, 9.83, 9.83, 9.39, 8.94, 3.8, 4.46, 3.6, 5.69, 10.0, 13.28, 14.56, 12.87, 12.04, 10.55, 8.47, 6.95, 6.59, 7.74, 13.82, 13.82, 14.27, 14.27, 14.27, 14.62, 15.07, 15.07, 15.08, 14.09, 12.06, 10.0, 10.4, 10.38, 10.35, 11.49, 11.59, 12.03, 11.93, 11.93, 12.22, 10.91, 10.41, 11.3, 10.84, 11.78, 11.78, 11.55, 11.55, 10.14, 10.69, 10.73, 11.62, 11.62, 11.09, 10.84, 10.68, 11.26, 14.24, 17.52, 18.37, 16.09, 14.03, 12.39, 11.38, 10.18, 10.04, 10.01, 9.96, 9.17, 9.17, 9.17, 9.17, 9.17, 9.17, 9.48, 9.02, 9.02, 9.32, 8.49, 8.67, 11.6, 12.53, 12.98, 12.79, 12.27, 10.51, 10.12, 9.24, 8.31, 7.82, 8.05, 8.05, 5.81, 0.0, -0.0, 7.59, 9.08, 9.22, 9.8, 9.33, 9.39, 9.21, 8.77, 7.63, 7.4, 7.6, 9.8, 12.25, 13.48, 12.66, 11.44, 11.03, 8.23, 6.18, 6.04, 7.36, 9.3, 13.82, 13.82, 14.27, 14.27, 14.27, 14.72, 15.17, 15.17, 15.17, 14.21, 11.78, 10.34, 10.6, 10.56, 11.13, 11.14, 11.59, 12.03, 12.03, 12.37, 12.35, 11.93, 12.9, 12.71, 12.45, 12.45, 12.45, 12.9, 12.27, 11.78, 9.35, 9.83, 10.23, 12.07, 13.09, 12.04, 10.99, 10.52, 14.78, 17.22, 15.27, 13.07, 11.2, 11.2, 10.99, 10.18, 9.4, 9.69, 9.26, 8.42, 8.53, 9.26, 9.26, 9.59, 9.48, 9.48, 9.17, 9.48, 9.02, 9.48, 10.56, 11.61, 13.44, 13.39, 13.19, 12.26, 10.84, 9.8, 8.95, 8.84, 8.83, 8.68, 9.92, 14.79, 3.79, 6.44, 7.64, 8.4, 8.15, 7.51, 8.0, 8.94, 8.38, 7.97, 7.74, 8.67, 10.05, 12.79, 13.59, 13.39, 11.72, 11.72, 10.0, 6.79, 5.63, 5.9, 8.53, 10.61, 13.82, 13.82, 13.82, 14.27, 14.71, 15.16, 15.17, 15.2, 15.2, 13.38, 11.1, 10.14, 10.14, 10.25, 11.62, 11.18, 12.07, 12.52, 12.47, 12.37, 12.79, 14.26, 14.75, 15.15, 14.68, 14.23, 15.12, 14.03, 12.85, 10.5, 10.41, 9.39, 9.83, 10.28, 11.28, 12.66, 12.13, 11.53, 11.99, 12.72, 13.88, 12.14, 12.25, 11.72, 11.75, 10.25, 9.3, 9.17, 8.85, 8.85, 9.42, 9.34, 9.59, 9.59, 9.59, 9.59, 9.17, 8.85, 9.17, 9.3, 11.14, 12.71, 13.49, 13.39, 12.86, 12.22, 11.14, 9.7, 8.95, 9.24, 8.31, 7.36, 7.21, 12.64, 11.7, 12.02, 11.33, 8.72, 9.24, 9.33, 6.32, 8.0, 9.39, 10.28, 11.02, 11.02, 13.57, 13.99, 13.56, 12.89, 11.71, 10.68, 6.18, 5.44, 5.2, 6.69, 10.01, 11.33, 13.38, 13.82, 14.27, 14.71, 15.16, 15.16, 15.2, 15.2, 14.75, 12.96, 10.73, 9.39, 10.28, 11.18, 12.52, 11.18, 12.03, 12.96, 12.96, 12.91, 13.34, 13.41, 13.41, 15.65, 15.59, 14.64, 15.2, 15.18, 13.81, 12.56, 11.98, 12.07, 12.52, 12.35, 10.46, 10.87, 10.55, 9.1, 8.93, 10.68, 11.92, 12.74, 13.97, 14.78, 13.65, 10.73, 8.85, 9.17, 9.64, 10.09, 9.08, 8.97, 9.69, 9.69, 9.3, 9.3, 8.97, 8.97, 8.64, 9.52, 10.68, 12.74, 13.44, 12.98, 12.27, 11.87, 11.47, 10.43, 9.24, 8.31, 6.52, 4.87, 3.22, 2.34, 15.65, 11.68, 11.53, 11.45, 11.49, 12.96, 12.07, 6.95, 8.55, 10.6, 12.07, 12.96, 13.44, 12.79, 12.45, 12.35, 9.55, 6.13, 5.93, 5.69, 6.52, 8.73, 10.99, 11.33, 13.82, 14.27, 14.27, 14.71, 15.16, 15.16, 15.2, 15.2, 14.3, 12.52, 10.73, 10.28, 12.96, 12.96, 12.52, 12.45, 12.9, 12.91, 13.41, 12.96, 13.41, 13.41, 13.41, 14.3, 12.52, 11.62, 9.83, 13.23, 15.04, 13.32, 13.86, 15.2, 15.2, 12.87, 10.48, 8.22, 8.93, 9.2, 8.55, 8.93, 10.87, 12.42, 12.42, 10.55, 9.16, 8.22, 10.09, 10.94, 11.03, 10.73, 11.09, 9.42, 9.42, 9.76, 9.42, 9.08, 9.52, 8.73, 8.73, 10.4, 11.8, 13.18, 12.3, 12.15, 11.66, 11.25, 11.47, 10.65, 9.11, 6.52, 4.87, 3.07, 0.0, -2.15, 0.0, 10.73, 10.55, 10.85, 13.72, 16.5, 15.43, 8.8, 4.4, 3.39, 5.2, 8.53, 12.52, 12.96, 11.62, 10.28, 7.21, 6.0, 6.13, 6.32, 7.37, 10.4, 11.99, 10.61, 14.26, 14.26, 14.71, 14.71, 15.15, 15.15, 15.2, 15.2, 14.3, 12.52, 11.62, 12.07, 12.07, 13.81, 13.86, 13.33, 13.88, 13.81, 14.11, 12.83, 12.52, 12.96, 13.86, 14.3, 13.86, 11.18, 8.94, 10.73, 14.55, 14.11, 14.3, 16.09, 14.9, 12.45, 9.42, 7.59, 8.23, 7.81, 9.67, 9.96, 9.69, 10.62, 9.52, 8.47, 7.59, 7.72, 8.97, 10.37, 11.03, 11.03, 10.48, 10.48, 10.18, 9.81, 9.16, 9.58, 9.97, 9.16, 9.52, 10.6, 12.85, 13.65, 13.99, 12.15, 11.66, 10.98, 10.43, 9.66, 8.1, 6.52, 4.98, 4.51, 0.0, -5.81, -5.31, 11.99, 11.56, 12.27, 12.5, 14.72, 16.76, 15.02, 7.89, -0.0, -0.0, -0.0, -0.0, -0.0, -0.0, -0.0, 6.71, 6.71, 7.01, 7.74, 8.8, 11.72, 12.98, 9.7, 14.26, 14.26, 14.71, 14.71, 14.71, 15.15, 15.2, 14.75, 13.86, 12.52, 12.52, 12.96, 13.41, 13.8, 14.3, 14.16, 14.39, 11.54, 11.68, 13.97, 16.54, 17.2, 16.99, 14.75, 14.75, 12.07, 10.08, 10.28, 12.96, 13.88, 13.01, 12.79, 11.03, 9.97, 8.93, 9.08, 8.73, 9.3, 8.22, 8.66, 9.5, 10.02, 9.53, 7.44, 6.87, 7.59, 9.16, 9.43, 9.4, 9.4, 11.04, 11.6, 11.6, 11.36, 10.73, 10.58, 10.92, 10.4, 10.4, 11.33, 13.75, 13.92, 12.98, 12.62, 12.03, 11.34, 10.12, 9.4, 8.18, 7.24, 7.93, 7.89, 0.0, -7.1, -6.4, 0.0, 12.96, 13.41, 13.86, 14.06, 14.84, 14.56, 11.31, 8.18, -0.0, -0.0, -0.0, -0.0, -0.0, -0.0, 3.0, 5.95, 7.15, 8.82, 10.75, 13.32, 12.04, 9.04, 14.26, 14.26, 14.26, 14.71, 14.7, 14.7, 15.15, 14.75, 13.86, 12.96, 12.96, 13.41, 14.3, 14.3, 13.34, 12.52, 12.35, 11.9, 11.06, 10.87, 10.3, 12.22, 14.84, 15.61, 13.01, 11.6, 10.41, 7.06, 10.28, 8.94, 8.8, 9.6, 8.93, 7.33, 8.03, 7.9, 6.77, 7.65, 6.92, 7.69, 8.51, 9.8, 8.85, 6.45, 7.27, 8.21, 10.88, 10.4, 10.8, 11.44, 12.04, 13.49, 14.64, 15.13, 13.92, 12.8, 14.31, 12.66, 10.47, 11.95, 14.06, 13.23, 13.15, 12.42, 12.03, 12.37, 13.1, 13.1, 12.03, 10.37, 10.01, 9.17, 1.66, -7.44, -7.11, -1.9, 12.94, 14.66, 14.03, 13.29, 12.74, 11.58, 10.62, 8.63, 7.6, -1.75, -1.75, -2.39, -1.84, -0.0, 1.73, 4.96, 5.95, 9.21, 11.62, 12.83, 11.46, 8.48, 14.26, 14.26, 14.26, 14.7, 14.7, 14.7, 14.7, 14.3, 14.3, 13.41, 13.41, 13.86, 14.3, 14.75, 15.11, 15.08, 13.86, 12.79, 11.2, 9.17, 7.44, 6.43, 6.43, 6.43, 6.43, 6.21, 5.6, 7.82, 9.58, 8.94, 9.13, 9.3, 8.59, 8.24, 7.9, 7.56, 6.95, 7.36, 5.75, 5.98, 7.68, 9.17, 7.85, 7.59, 8.8, 10.41, 11.35, 11.45, 11.45, 11.87, 11.03, 12.14, 13.23, 14.13, 15.68, 16.33, 15.02, 14.79, 11.56, 11.59, 13.18, 12.33, 11.81, 11.58, 12.39, 12.62, 13.43, 15.29, 14.88, 14.79, 13.6, 10.43, 3.25, -7.44, -8.82, 4.24, 15.12, 16.05, 14.77, 12.13, 10.48, 9.34, 9.26, 9.48, 7.81, -0.0, -5.52, -4.6, -2.97, -1.47, -0.0, -0.0, 4.29, 6.79, 11.46, 12.96, 10.58, 7.52, 14.26, 14.26, 14.26, 14.26, 14.7, 14.69, 14.69, 14.25, 14.3, 13.86, 13.86, 14.3, 14.75, 15.2, 15.55, 15.99, 15.53, 14.99, 14.75, 12.27, 10.12, 5.63, 4.05, 3.58, 1.89, 3.81, 4.38, 7.13, 9.17, 11.21, 10.28, 9.6, 9.3, 7.9, 7.9, 7.64, 6.64, 6.77, 5.7, 5.21, 5.92, 7.9, 8.73, 10.27, 9.76, 9.97, 9.06, 10.05, 10.46, 10.88, 11.03, 10.91, 11.11, 11.55, 11.35, 10.15, 12.27, 13.38, 13.34, 10.89, 12.27, 13.02, 12.39, 12.45, 11.5, 12.04, 12.56, 12.65, 13.62, 11.66, 11.86, 10.05, 5.46, -5.0, -3.25, 13.44, 16.62, 15.77, 14.39, 12.27, 10.28, 8.53, 8.12, 8.15, 7.27, 7.27, 0.0, -3.39, -0.0, -0.0, -1.93, -0.0, 5.06, 6.44, 10.18, 11.62, 9.29, 7.74, 14.26, 14.26, 14.26, 14.11, 14.25, 14.69, 14.69, 14.69, 14.23, 14.3, 14.3, 14.3, 14.75, 15.2, 16.09, 16.44, 15.71, 15.61, 15.34, 15.65, 13.03, 9.49, 4.81, 2.15, -0.0, 2.21, 4.95, 9.22, 11.17, 11.99, 12.79, 11.02, 8.94, 7.27, 8.82, 8.8, 7.9, 5.63, 5.54, 4.88, 6.87, 10.4, 10.0, 10.32, 9.03, 9.03, 9.46, 9.04, 9.04, 9.45, 9.86, 9.45, 9.89, 8.06, 7.6, 7.81, 7.9, 9.27, 11.54, 11.99, 11.11, 11.44, 11.33, 11.33, 11.99, 12.45, 12.45, 11.99, 10.01, 8.85, 8.37, 9.5, 8.59, 8.38, 11.2, 15.29, 15.52, 13.87, 12.89, 11.2, 9.06, 7.24, 6.2, 5.52, 6.48, 7.85, 7.59, 7.59, 7.81, 8.55, 10.41, 8.94, 7.37, 7.08, 8.05, 8.87, 8.24, 8.24, 14.26, 14.26, 14.11, 14.11, 14.07, 14.25, 14.23, 14.68, 14.68, 14.3, 14.3, 14.75, 14.68, 15.12, 15.99, 16.54, 16.01, 15.69, 14.18, 16.09, 14.84, 14.38, 8.68, -0.0, -0.0, 2.65, 4.95, 8.68, 10.43, 12.79, 13.67, 13.67, 10.04, 8.23, 8.43, 7.42, 7.51, 6.4, 6.98, 7.59, 8.93, 10.18, 10.32, 9.46, 9.03, 8.6, 8.48, 8.0, 8.0, 7.81, 9.04, 8.4, 8.18, 8.4, 6.98, 6.98, 6.64, 7.9, 9.66, 10.01, 9.05, 8.49, 8.49, 8.49, 8.24, 9.09, 8.42, 9.16, 8.85, 8.85, 7.59, 8.67, 8.23, 8.31, 13.54, 13.76, 12.62, 10.84, 10.01, 8.84, 8.14, 7.69, 6.44, 6.71, 8.23, 8.43, 8.12, 8.73, 8.73, 8.38, 7.68, 7.81, 7.56, 8.05, 8.94, 8.77, 8.48, 8.48, 14.25, 14.25, 14.07, 13.63, 14.07, 14.03, 14.23, 14.68, 14.68, 14.75, 14.75, 14.75, 14.68, 15.12, 15.55, 15.99, 15.57, 15.84, 12.92, 16.54, 14.79, 15.78, 16.09, -11.06, -8.43, 2.98, 9.77, 9.77, 11.06, 14.39, 15.34, 15.65, 13.99, 11.2, 7.53, 7.95, 8.37, 9.55, 9.55, 9.55, 10.18, 9.16, 9.33, 7.53, 8.48, 8.48, 8.0, 7.44, 6.98, 6.98, 6.98, 6.98, 7.81, 7.81, 6.64, 6.64, 6.64, 6.3, 6.58, 7.59, 6.98, 5.98, 5.1, 4.88, 5.46, 4.26, 5.21, 6.3, 8.82, 10.37, 9.13, 7.74, 6.65, 8.72, 11.38, 11.5, 10.61, 9.61, 9.43, 8.21, 8.2, 7.66, 7.93, 10.09, 10.73, 9.05, 8.79, 8.02, 7.68, 7.68, 7.35, 7.07, 8.19, 8.91, 9.79, 9.21, 8.91, 8.91, 14.25, 14.07, 14.07, 13.63, 13.63, 14.03, 14.03, 14.23, 14.66, 14.75, 14.75, 14.75, 14.75, 15.12, 14.84, 14.66, 15.12, 14.94, 12.71, 11.38, 13.58, 15.18, 15.12, 10.43, 0.0, 8.43, 13.99, 14.53, 14.39, 15.69, 16.22, 16.54, 16.54, 14.55, 9.97, 7.08, 8.49, 9.83, 9.55, 9.55, 9.21, 8.33, 7.47, 7.89, 8.48, 8.0, 6.98, 6.32, 5.59, 5.59, 5.59, 6.98, 6.98, 6.98, 6.32, 6.32, 6.64, 6.3, 6.58, 5.98, 6.24, 4.8, 4.05, 3.87, 3.7, 2.54, 2.67, 4.37, 6.95, 8.22, 8.05, 7.32, 7.4, 8.29, 9.17, 9.42, 8.77, 7.4, 7.18, 7.84, 6.8, 6.85, 9.42, 10.79, 9.04, 8.73, 7.59, 7.68, 6.95, 7.68, 7.27, 7.15, 7.98, 9.11, 9.42, 9.33, 8.91, 8.91, 14.07, 14.07, 13.63, 13.63, 13.59, 13.59, 13.96, 14.22, 14.66, 14.66, 14.75, 14.75, 14.75, 14.66, 14.66, 15.93, 14.22, 14.99, 13.58, 14.75, 13.97, 15.18, 14.75, 15.49, 14.47, 16.54, 12.39, 16.54, 17.43, 14.75, 15.65, 15.78, 16.54, 16.09, 14.11, 10.73, 8.94, 8.67, 9.2, 9.3, 8.43, 8.05, 8.4, 7.15, 7.51, 6.64, 5.86, 5.59, 4.96, 5.59, 6.64, 6.98, 7.33, 6.98, 7.33, 6.64, 6.64, 6.3, 5.98, 5.32, 4.8, 3.77, 3.61, 2.57, 2.57, 1.75, 1.95, 3.35, 4.98, 5.99, 6.2, 7.4, 7.22, 8.23, 7.15, 5.96, 4.41, 4.29, 4.53, 5.26, 6.4, 8.78, 10.69, 10.37, 9.0, 8.31, 7.59, 7.48, 8.35, 7.27, 7.59, 8.42, 8.95, 9.08, 9.36, 8.8, 9.2, 9.2, 14.03, 14.03, 13.59, 13.27, 13.27, 13.59, 13.96, 13.96, 14.66, 14.66, 14.75, 14.75, 14.75, 14.66, 14.66, 13.96, 14.31, 14.22, 15.53, 15.2, 16.41, 15.58, 15.2, 16.54, 16.09, 16.54, 16.54, 14.75, 15.2, 15.43, 16.09, 16.09, 15.78, 16.54, 16.09, 13.59, 11.28, 10.18, 7.81, 5.69, 6.01, 5.59, 4.96, 4.96, 5.2, 5.29, 4.83, 4.2, 4.2, 5.59, 6.98, 8.0, 7.44, 7.44, 6.45, 6.32, 6.58, 5.49, 5.06, 3.77, 2.6, 2.49, 1.28, 1.22, 1.75, 1.75, 2.98, 3.63, 5.29, 5.57, 5.28, 5.99, 6.22, 4.66, 1.97, 0.0, -0.95, 0.0, 3.09, 4.81, 6.29, 9.61, 10.75, 9.64, 7.9, 6.88, 6.58, 6.88, 7.48, 7.27, 8.31, 9.4, 10.8, 10.0, 9.52, 9.04, 7.68, 7.68, 13.59, 14.03, 13.27, 13.27, 13.27, 13.15, 13.96, 13.96, 14.66, 14.66, 14.75, 14.75, 14.75, 14.64, 15.08, 14.75, 14.75, 13.75, 12.96, 15.2, 16.99, 16.09, 16.09, 15.2, 14.11, 15.34, 14.9, 15.65, 16.09, 16.31, 16.31, 16.54, 16.54, 16.54, 16.54, 14.9, 11.99, 10.4, 8.93, 4.96, 4.96, 4.2, 5.06, 4.4, 4.2, 3.98, 4.83, 4.2, 4.2, 6.32, 7.67, 8.0, 8.0, 7.44, 7.21, 6.32, 6.18, 5.38, 4.8, 3.61, 2.49, 2.49, 1.22, 1.33, 1.84, 1.94, 3.63, 5.46, 6.98, 6.45, 6.15, 5.79, 4.55, 0.98, -0.99, -4.23, -5.56, -2.52, 0.0, 3.69, 7.0, 9.47, 9.91, 8.78, 8.61, 7.27, 6.95, 7.27, 7.59, 7.64, 9.4, 10.01, 10.79, 9.56, 8.93, 8.6, 7.52, 7.52, 13.59, 13.27, 13.27, 13.27, 13.15, 13.15, 13.53, 13.96, 14.66, 14.64, 14.64, 14.75, 14.75, 14.64, 14.6, 14.61, 14.75, 14.19, 13.86, 14.6, 16.09, 16.09, 15.49, 15.43, 16.54, 16.66, 16.22, 15.43, 15.65, 16.09, 16.37, 16.37, 16.54, 16.54, 16.54, 15.78, 13.7, 10.37, 8.94, 7.27, 6.32, 5.63, 5.63, 4.83, 4.37, 3.99, 3.11, 3.11, 4.83, 7.67, 7.6, 7.6, 7.44, 6.98, 6.64, 6.64, 6.64, 6.31, 5.1, 3.87, 3.49, 3.36, 2.7, 3.3, 3.14, 3.3, 4.98, 6.95, 8.31, 9.76, 9.13, 9.17, 7.85, 4.55, -2.37, -2.2, -2.11, 0.0, 1.58, 5.78, 7.42, 8.83, 8.65, 9.57, 9.8, 9.08, 7.35, 8.38, 8.27, 9.69, 9.66, 9.57, 9.56, 8.9, 8.22, 7.44, 7.36, 7.36, 13.15, 13.15, 13.15, 13.15, 13.15, 13.15, 13.15, 13.96, 14.31, 14.64, 15.08, 15.08, 14.64, 14.6, 14.6, 15.05, 15.05, 14.31, 14.19, 14.75, 16.09, 15.65, 14.55, 14.42, 15.93, 16.99, 17.26, 16.82, 16.37, 15.65, 15.43, 15.93, 15.93, 16.09, 16.09, 16.09, 15.34, 11.99, 9.3, 8.58, 7.87, 6.64, 5.63, 5.36, 4.14, 3.97, 3.65, 5.63, 6.79, 6.9, 7.6, 7.28, 6.63, 6.98, 6.98, 6.64, 7.06, 6.53, 6.58, 4.5, 4.34, 5.21, 5.36, 5.36, 5.82, 6.32, 7.41, 8.18, 8.79, 8.31, 9.17, 9.8, 7.44, 6.69, 7.59, 5.72, 6.63, 5.64, 5.81, 7.12, 7.36, 7.54, 8.58, 9.48, 10.59, 9.88, 8.73, 8.73, 9.0, 9.34, 9.62, 9.21, 8.85, 8.16, 7.44, 6.97, 6.71, 6.71, 13.15, 13.15, 13.15, 13.15, 12.66, 13.15, 13.15, 13.39, 14.31, 14.64, 15.08, 15.08, 15.05, 14.6, 14.99, 15.05, 15.05, 14.6, 14.18, 14.6, 15.65, 16.09, 15.2, 14.11, 14.18, 15.97, 16.99, 17.26, 17.2, 16.54, 16.09, 14.99, 15.49, 15.65, 15.65, 15.34, 15.34, 12.87, 11.21, 8.58, 8.23, 7.27, 6.95, 5.36, 4.83, 3.68, 4.4, 5.63, 7.28, 6.9, 6.63, 6.63, 6.01, 6.63, 6.63, 6.32, 6.01, 6.64, 6.87, 6.95, 5.69, 6.01, 7.06, 6.95, 6.95, 8.12, 8.82, 9.48, 7.76, 6.83, 5.9, 6.01, 6.36, 5.79, 6.64, 5.81, 4.72, 4.72, 4.52, 4.47, 4.15, 5.81, 9.57, 11.52, 11.72, 10.62, 9.42, 9.04, 9.34, 9.26, 8.93, 8.16, 8.09, 7.36, 6.62, 6.62, 7.44, 7.44, 13.15, 13.15, 13.15, 12.66, 12.25, 12.25, 12.98, 13.39, 13.88, 14.31, 14.75, 14.61, 14.61, 14.42, 14.99, 15.05, 14.6, 14.6, 14.6, 14.61, 15.43, 16.54, 16.54, 15.65, 14.64, 15.08, 16.54, 16.99, 16.99, 16.99, 16.54, 16.09, 15.65, 15.2, 15.2, 14.99, 14.9, 13.7, 11.62, 9.2, 8.82, 7.68, 6.64, 5.86, 3.15, 1.49, 1.07, 2.67, 4.26, 4.83, 4.83, 6.14, 5.69, 5.69, 6.63, 6.63, 6.32, 5.24, 6.95, 7.56, 6.95, 6.45, 5.89, 6.48, 6.64, 7.76, 8.42, 8.42, 7.68, 5.29, 3.29, 3.2, 5.8, 6.52, 5.55, 4.52, 2.72, 2.45, 1.38, 0.0, 2.64, 9.89, 13.29, 13.99, 12.65, 10.25, 8.73, 9.04, 9.34, 8.9, 8.76, 7.36, 7.36, 6.7, 6.71, 6.97, 7.44, 7.44, 12.98, 12.98, 12.56, 11.99, 11.99, 11.99, 12.39, 13.39, 13.81, 14.31, 14.18, 14.61, 14.42, 15.04, 15.49, 15.05, 14.55, 14.55, 14.55, 14.42, 15.04, 16.37, 16.99, 16.54, 15.97, 15.08, 15.53, 16.54, 16.99, 16.99, 16.99, 16.54, 16.54, 15.65, 15.2, 15.2, 14.99, 14.99, 13.15, 10.0, 8.82, 8.03, 6.95, 5.86, 3.32, 1.32, 0.0, 1.07, 3.17, 4.21, 4.21, 3.77, 5.36, 5.37, 6.01, 6.01, 5.31, 6.01, 6.98, 6.95, 6.95, 6.58, 5.1, 5.36, 6.73, 8.43, 8.42, 8.38, 6.31, 4.25, 3.39, 3.76, 4.88, 7.33, 6.97, 6.36, 2.99, 0.0, 0.0, 0.0, 9.48, 15.2, 15.53, 13.89, 11.5, 9.52, 9.04, 9.0, 8.93, 8.16, 9.06, 7.63, 7.36, 6.62, 7.09, 7.64, 7.73, 7.73, 11.99, 11.99, 11.99, 11.99, 11.99, 12.39, 12.39, 12.79, 13.56, 13.56, 13.56, 14.61, 14.61, 15.04, 15.49, 15.05, 14.55, 14.55, 14.55, 14.99, 15.04, 15.93, 16.41, 16.86, 16.41, 15.97, 15.53, 15.97, 16.54, 16.54, 16.54, 16.09, 16.09, 16.54, 16.54, 16.09, 15.65, 15.34, 14.9, 12.87, 10.79, 8.82, 6.95, 5.21, 2.83, 0.0, 0.0, 1.58, 2.99, 4.14, 5.03, 4.46, 3.97, 4.58, 3.97, 4.58, 5.31, 5.69, 6.55, 6.11, 5.46, 5.63, 5.7, 6.01, 8.37, 7.81, 8.42, 6.83, 6.15, 4.44, 3.29, 2.37, 3.2, 6.37, 8.26, 6.9, 6.18, 3.68, 2.05, 3.82, 12.52, 12.27, 15.2, 13.96, 11.38, 9.66, 9.62, 9.26, 8.42, 8.12, 8.09, 8.01, 8.3, 7.51, 7.36, 7.63, 7.36, 7.36, 11.64, 11.64, 11.99, 11.99, 11.99, 11.75, 12.39, 12.42, 12.81, 13.56, 13.56, 13.97, 14.61, 15.04, 15.04, 14.84, 14.55, 14.55, 15.05, 15.49, 15.49, 15.93, 16.41, 16.41, 16.41, 16.41, 15.99, 15.18, 15.04, 16.09, 16.09, 16.09, 15.93, 16.09, 16.09, 16.09, 16.09, 15.34, 15.34, 13.7, 12.04, 9.2, 7.21, 5.46, 4.2, -4.2, -9.39, 0.0, 4.46, 5.37, 5.69, 5.03, 4.22, 4.22, 3.2, 3.0, 3.91, 5.69, 5.84, 5.69, 4.26, 4.56, 4.78, 6.32, 7.81, 8.73, 6.83, 5.06, 4.25, 3.53, 2.61, 1.71, 0.81, 2.49, 4.75, 5.76, 6.28, 7.4, 5.81, 5.2, 8.58, 9.3, 11.84, 13.57, 11.31, 9.96, 9.53, 9.06, 8.3, 8.42, 7.51, 7.38, 8.18, 7.54, 7.54, 6.44, 6.77, 6.77, 11.64, 11.64, 11.64, 11.64, 11.37, 11.28, 11.28, 12.42, 12.81, 12.81, 13.19, 13.97, 14.61, 15.04, 15.04, 14.84, 15.05, 14.6, 15.05, 15.49, 15.49, 15.49, 15.93, 16.37, 16.54, 16.54, 15.97, 15.18, 15.04, 15.49, 16.09, 16.09, 15.93, 15.93, 16.09, 16.09, 16.09, 15.87, 15.34, 14.53, 12.87, 10.38, 8.05, 8.43, 8.43, 0.0, -9.33, -0.0, 9.39, 6.8, 6.08, 5.03, 4.22, 3.72, 2.26, 2.12, 3.2, 4.56, 5.06, 4.87, 4.68, 4.0, 5.63, 7.06, 7.76, 6.83, 6.15, 4.6, 2.7, 2.49, 1.64, 1.65, 0.83, 0.0, 0.81, 2.58, 5.8, 6.81, 5.33, 4.43, 2.95, 5.21, 9.09, 9.42, 9.92, 9.53, 8.79, 8.18, 7.38, 7.51, 6.94, 6.56, 5.89, 7.19, 6.67, 6.9, 6.1, 6.1, 11.64, 11.64, 11.64, 11.64, 10.91, 11.28, 11.28, 11.64, 12.81, 12.27, 12.27, 13.56, 14.61, 14.38, 14.38, 15.04, 15.04, 15.05, 15.05, 14.61, 15.04, 14.61, 15.04, 15.93, 16.09, 16.54, 16.09, 15.49, 15.04, 15.49, 15.65, 15.65, 15.49, 15.49, 15.65, 15.65, 16.09, 15.87, 15.34, 14.53, 13.7, 11.62, 8.23, 7.28, 5.49, 5.63, 5.2, 12.07, 11.02, 9.33, 6.52, 4.11, 4.47, 3.72, 2.8, 2.26, 1.01, 1.84, 3.2, 3.72, 3.55, 4.0, 5.1, 6.32, 6.18, 6.04, 5.9, 5.32, 2.97, 1.84, 1.92, 3.42, 4.0, 2.41, 0.0, 1.14, 3.46, 5.09, 5.15, 5.14, 6.1, 5.52, 6.32, 7.17, 7.23, 8.73, 7.54, 5.89, 5.68, 5.1, 4.58, 4.06, 4.65, 6.0, 6.0, 5.55, 5.86, 5.86, 11.16, 11.16, 11.64, 10.91, 10.91, 11.28, 11.28, 11.64, 11.33, 12.27, 12.27, 13.19, 13.97, 14.38, 14.38, 14.38, 15.04, 14.75, 14.61, 14.61, 14.61, 14.61, 14.61, 15.49, 15.93, 16.09, 16.09, 15.65, 14.99, 15.05, 15.65, 15.49, 15.05, 14.99, 15.2, 15.2, 15.65, 15.43, 15.34, 15.34, 14.11, 11.99, 8.94, 6.64, 4.83, 5.9, 9.48, 10.91, 10.87, 8.93, 5.93, 3.07, 2.3, 2.4, 2.2, 1.84, 1.01, 0.0, 1.25, 1.1, 2.09, 2.98, 4.74, 5.21, 4.56, 4.34, 4.2, 5.32, 4.05, 3.11, 2.97, 5.14, 6.52, 5.56, 2.72, 0.0, 1.47, 3.62, 4.66, 6.8, 8.21, 9.92, 8.59, 6.81, 5.85, 5.32, 4.05, 3.82, 2.99, 2.88, 2.19, 2.37, 3.34, 3.46, 4.87, 5.15, 4.98, 4.98, 10.3, 10.3, 10.91, 10.91, 10.91, 11.28, 11.28, 11.64, 11.33, 11.33, 11.33, 12.81, 13.56, 13.97, 13.58, 14.38, 15.18, 15.18, 15.18, 13.97, 13.97, 14.61, 15.04, 15.04, 15.49, 16.09, 16.09, 15.2, 16.54, 14.11, 15.05, 15.49, 14.99, 14.99, 14.75, 15.2, 15.2, 15.34, 15.34, 15.34, 13.99, 12.79, 8.22, 5.46, 2.39, 3.98, 6.7, 7.79, 8.01, 6.64, 4.19, 3.22, 2.16, 1.84, 1.7, 1.47, 1.84, 1.01, 0.0, 0.0, 0.0, 1.84, 3.63, 3.15, 3.32, 2.57, 1.84, 2.7, 3.77, 4.23, 4.56, 5.06, 5.45, 5.71, 5.53, 2.47, 2.65, 3.04, 4.81, 6.2, 7.89, 8.97, 7.99, 5.81, 4.36, 2.53, 1.64, 0.76, 0.86, 0.77, 0.86, 0.89, 1.71, 1.71, 3.46, 3.46, 3.68, 3.68, 10.3, 10.3, 10.3, 10.3, 10.3, 10.65, 10.65, 10.12, 10.43, 10.43, 11.33, 12.81, 13.81, 13.81, 13.58, 14.38, 14.65, 14.38, 14.38, 13.97, 14.38, 15.04, 15.04, 14.61, 15.49, 15.49, 15.65, 15.2, 14.3, 16.09, 14.11, 14.99, 15.43, 15.43, 15.2, 15.2, 15.2, 14.9, 15.34, 15.18, 13.99, 10.43, 6.94, 5.7, 2.49, 2.71, 4.32, 6.67, 7.26, 5.31, 4.37, 4.14, 2.4, 2.26, 2.12, 1.72, 1.41, 0.89, 0.0, 0.0, 0.0, 2.67, 2.46, 2.54, 2.69, 2.44, 1.84, 1.67, 2.49, 3.77, 4.07, 3.51, 2.71, 2.5, 4.56, 6.01, 3.92, 3.29, 3.68, 4.55, 4.76, 5.21, 4.01, 3.05, 1.02, 0.0, 0.0, -0.83, -0.89, 0.0, 0.0, 0.0, 0.0, 0.92, 1.83, 2.92, 3.68, 3.68, 9.96, 9.96, 10.3, 10.3, 10.3, 10.65, 10.65, 10.12, 10.12, 10.43, 11.33, 12.81, 13.81, 13.81, 13.2, 13.99, 13.58, 13.97, 13.97, 14.38, 14.38, 15.04, 15.04, 14.61, 14.61, 15.49, 15.43, 15.2, 15.2, 14.75, 14.55, 14.55, 14.55, 14.99, 14.99, 15.2, 15.2, 14.9, 15.34, 13.99, 13.99, 10.75, 7.44, 4.8, 2.49, 2.71, 2.82, 5.6, 7.24, 5.63, 4.6, 3.32, 2.69, 1.32, 1.25, 1.01, 1.63, 1.52, 0.72, 0.0, 0.0, 2.99, 3.8, 4.0, 3.6, 2.69, 2.69, 2.69, 2.7, 3.77, 4.25, 3.92, 1.28, 0.84, 2.72, 6.35, 6.22, 3.46, 3.04, 2.33, 2.56, 1.88, 2.05, 1.06, 0.0, 0.0, -2.04, -2.82, -2.72, -1.9, -1.0, 0.0, 0.0, 0.0, 1.9, 1.9, 2.81, 2.81, 9.96, 9.96, 10.3, 10.3, 10.3, 10.3, 10.65, 10.12, 10.12, 10.43, 11.33, 12.81, 13.81, 12.81, 13.2, 13.58, 13.2, 13.2, 13.2, 14.38, 14.38, 15.04, 15.04, 15.04, 14.61, 14.61, 15.43, 15.2, 15.2, 15.2, 14.75, 14.11, 14.11, 14.11, 14.55, 14.99, 15.2, 14.99, 14.9, 13.99, 13.99, 10.75, 8.31, 2.82, 0.0, 0.0, 3.68, 6.7, 5.4, 4.6, 4.4, 3.49, 2.69, 1.4, 1.32, 1.07, 1.07, 1.73, 1.45, 0.59, 0.61, 2.99, 4.14, 3.8, 4.0, 2.83, 3.45, 3.32, 3.49, 3.51, 3.25, 3.68, 2.45, 1.71, 2.65, 5.14, 6.8, 5.3, 3.07, 1.08, 1.01, 1.07, 1.07, 0.0, 0.0, 0.0, -1.17, -1.15, -1.13, 0.0, 0.0, 1.01, 1.05, 1.98, 2.71, 2.71, 2.93, 2.93, 9.96, 9.96, 10.3, 10.3, 10.3, 10.3, 10.65, 9.8, 9.31, 9.31, 10.43, 12.81, 12.81, 12.81, 12.81, 13.2, 13.2, 12.65, 12.65, 14.38, 14.38, 15.04, 15.04, 15.04, 15.04, 14.61, 14.42, 14.99, 14.75, 14.75, 14.75, 14.55, 14.11, 13.67, 14.11, 14.3, 14.75, 15.2, 14.9, 13.59, 13.59, 12.16, 10.12, 2.93, 0.0, 0.0, 7.59, 8.22, 6.7, 6.2, 4.4, 3.65, 3.49, 1.47, 1.32, 1.14, 1.14, 0.94, 0.79, 0.64, 0.67, 0.61, 1.32, 1.84, 1.84, 2.58, 2.69, 2.7, 1.68, 2.59, 2.42, 3.39, 2.4, 2.63, 2.49, 4.07, 5.87, 5.8, 4.99, 4.12, 2.85, 2.31, 2.04, 1.97, 2.04, 3.25, 3.41, 3.18, 3.97, 3.82, 3.53, 3.53, 2.71, 2.82, 2.71, 2.71, 3.55, 3.55, 9.17, 9.17, 10.3, 10.3, 10.3, 10.3, 10.65, 9.8, 9.31, 9.31, 10.12, 11.33, 12.81, 13.56, 13.56, 13.2, 12.65, 12.65, 13.97, 14.38, 14.38, 15.04, 15.04, 15.04, 14.61, 14.42, 14.42, 14.99, 14.55, 14.55, 14.47, 14.47, 14.03, 13.59, 13.86, 13.86, 14.3, 14.75, 14.47, 13.59, 13.59, 12.16, 8.66, 6.45, -8.94, -4.2, 7.27, 11.18, 9.67, 6.45, 4.8, 4.6, 1.93, 1.54, 1.4, 1.14, 1.14, 1.0, 0.79, 0.69, 0.59, 0.0, 0.0, 0.94, 1.84, 1.33, 1.67, 1.75, 0.85, 1.68, 2.59, 3.29, 3.53, 3.76, 2.98, 2.64, 4.04, 5.23, 6.05, 7.35, 5.53, 3.42, 2.93, 3.82, 4.81, 6.53, 6.53, 5.0, 4.3, 3.29, 3.29, 3.29, 2.51, 2.82, 1.98, 1.84, 1.84, 2.71, 9.17, 9.17, 9.96, 10.3, 10.3, 10.3, 10.65, 9.8, 8.31, 8.31, 10.12, 10.99, 12.42, 12.42, 12.81, 13.2, 12.65, 12.65, 13.97, 14.38, 14.38, 14.38, 15.04, 15.04, 15.04, 14.42, 14.42, 14.42, 14.55, 14.55, 14.03, 14.03, 14.03, 13.59, 13.86, 13.86, 13.86, 14.3, 14.47, 13.19, 13.19, 13.59, 10.73, 8.58, 8.49, -0.0, 7.9, 11.62, 11.71, 10.04, 6.45, 2.71, 2.1, 1.84, 1.4, 1.32, 1.2, 1.05, 0.84, 0.74, 0.0, 0.0, 1.32, 0.89, 0.89, 1.33, 1.26, 1.67, 1.75, 1.84, 2.47, 4.08, 3.73, 4.13, 4.1, 1.95, 1.89, 2.8, 4.36, 6.13, 6.01, 5.46, 5.16, 5.8, 6.53, 6.15, 5.11, 3.19, 2.44, 1.64, 1.77, 1.7, 1.7, 0.97, 1.0, 1.0, 1.0, 1.84, 9.17, 9.17, 9.17, 10.3, 10.3, 10.3, 9.48, 8.87, 8.31, 8.31, 9.16, 10.99, 12.42, 12.42, 12.81, 12.81, 13.2, 13.2, 13.97, 13.97, 14.38, 14.38, 15.04, 14.61, 14.42, 13.99, 13.99, 13.99, 14.55, 14.47, 14.03, 14.03, 14.03, 13.86, 13.86, 13.86, 13.86, 13.86, 13.88, 13.88, 12.27, 12.27, 11.99, 8.58, 6.95, 10.4, 13.41, 13.41, 12.58, 9.17, 6.94, 5.4, 2.71, 2.02, 1.4, 1.32, 1.2, 1.05, 0.84, 0.0, 0.0, 0.0, 0.0, 1.4, 1.4, 1.26, 0.89, 1.75, 2.57, 2.7, 3.36, 3.51, 3.6, 4.74, 5.09, 4.38, 2.21, 1.11, 3.56, 4.18, 5.81, 5.62, 6.57, 6.15, 5.11, 3.96, 2.45, 1.6, 0.83, 0.83, 0.89, 0.86, 0.86, 0.0, 0.0, 1.2, 1.16, 1.0, 9.17, 9.17, 9.17, 9.17, 10.3, 9.48, 8.59, 8.87, 8.05, 7.1, 9.16, 10.99, 12.42, 12.42, 12.81, 12.81, 13.2, 13.2, 13.97, 13.97, 13.97, 13.97, 14.38, 14.38, 14.42, 13.99, 13.99, 13.99, 13.99, 13.7, 13.28, 13.59, 13.59, 13.86, 13.86, 13.86, 13.86, 13.86, 13.86, 13.15, 11.9, 12.27, 11.53, 9.67, 6.44, 7.78, 12.79, 13.28, 11.09, 9.48, 7.44, 6.94, 2.82, 2.6, 0.0, 0.0, 0.0, 0.0, 0.0, 0.0, 0.0, 0.0, 0.0, 0.0, 1.32, 1.4, 1.84, 1.33, 2.69, 3.49, 3.36, 3.36, 2.52, 3.6, 4.89, 6.36, 7.3, 5.28, 4.47, 4.3, 5.2, 5.4, 4.48, 3.96, 3.11, 1.44, 0.75, 0.0, 0.0, 0.0, 0.0, 0.0, 0.0, 0.0, 1.28, 3.19, 3.68, 3.68, 9.17, 9.17, 9.17, 9.17, 9.17, 9.48, 8.59, 8.05, 6.88, 6.88, 8.87, 10.99, 11.64, 12.42, 12.42, 12.81, 12.81, 13.2, 12.81, 13.97, 13.97, 13.97, 13.97, 13.97, 13.59, 13.99, 13.99, 13.99, 13.7, 13.7, 13.28, 13.59, 13.59, 13.59, 13.41, 13.86, 13.86, 13.86, 13.86, 13.15, 13.57, 11.9, 11.53, 8.53, 6.45, 7.51, 8.94, 9.8, 7.78, 7.78, 5.8, 5.4, 2.71, 2.39, 0.0, 0.0, 0.0, 0.0, 0.0, 0.0, 0.0, 0.0, 0.0, 0.0, 1.32, 2.69, 2.83, 2.46, 3.45, 3.49, 3.36, 2.59, 2.42, 2.6, 3.85, 6.1, 7.99, 9.71, 8.4, 5.93, 5.1, 5.02, 4.39, 3.34, 2.39, 0.83, 0.0, 0.0, -0.8, -0.86, -0.93, 0.0, 0.0, 1.39, 5.98, 6.97, 6.97, 6.97, 9.17, 9.17, 9.17, 9.17, 9.17, 9.48, 7.44, 6.65, 6.88, 7.69, 8.87, 10.65, 11.64, 11.64, 12.42, 12.81, 12.81, 12.81, 12.81, 13.97, 13.97, 13.97, 13.97, 13.59, 13.19, 13.57, 13.99, 13.99, 13.7, 13.7, 13.28, 12.87, 13.59, 13.15, 13.15, 13.41, 13.86, 13.86, 13.44, 13.15, 13.57, 13.57, 11.53, 8.85, 6.7, 6.94, 6.0, 5.8, 5.4, 5.2, 5.0, 5.0, 2.49, 2.17, 2.06, 0.0, 0.0, 0.0, 0.0, 0.0, 0.0, 0.0, -0.59, 0.0, 1.32, 2.69, 4.0, 4.0, 3.45, 3.32, 2.7, 1.68, 1.76, 1.63, 2.61, 4.1, 6.47, 8.4, 10.3, 9.05, 6.99, 5.65, 4.67, 3.47, 2.55, 1.66, 0.0, 0.0, -0.96, -2.16, -1.33, 0.0, 3.82, 6.21, 7.24, 5.2, 5.2, 5.2, 8.85, 8.85, 9.17, 9.17, 9.17, 8.1, 7.44, 6.65, 6.65, 7.69, 8.87, 10.65, 10.99, 10.99, 11.9, 12.27, 12.27, 12.27, 13.56, 13.56, 13.97, 13.97, 13.97, 13.59, 13.59, 13.19, 13.99, 13.99, 13.7, 13.7, 13.28, 13.28, 13.59, 13.59, 13.15, 13.41, 13.41, 13.59, 13.44, 13.44, 13.57, 13.57, 11.53, 9.17, 8.53, 6.7, 6.94, 6.94, 5.2, 4.8, 4.4, 4.2, 3.8, 2.06, 2.06, 0.0, 0.0, 0.0, 0.0, 0.0, 0.0, 0.0, -0.64, 0.0, 1.4, 2.69, 2.83, 2.54, 3.63, 2.57, 1.39, 0.89, 1.68, 1.69, 2.51, 3.32, 4.87, 6.47, 7.42, 9.64, 9.6, 8.78, 7.22, 5.65, 3.57, 2.54, 1.71, 0.0, 0.0, 0.0, 0.0, 4.15, 6.21, 6.21, 5.98, 5.2, 5.2, 5.2, 7.82, 7.82, 7.82, 8.1, 8.1, 7.19, 6.0, 5.28, 7.44, 7.69, 8.87, 9.8, 10.99, 10.99, 11.9, 12.27, 12.27, 12.27, 13.56, 13.56, 13.56, 13.56, 13.97, 13.59, 13.19, 13.19, 13.19, 13.99, 13.99, 13.7, 13.28, 13.28, 12.87, 13.59, 13.15, 13.15, 13.41, 13.59, 13.44, 13.44, 13.15, 11.9, 11.53, 9.48, 8.85, 6.7, 6.94, 6.94, 6.7, 5.0, 2.49, 2.17, 1.95, 1.95, 1.95, 0.0, 0.0, 0.0, 0.0, 0.0, 0.0, 0.0, 0.0, 0.0, 0.0, 1.47, 1.4, 0.89, 0.85, 0.89, 0.89, 0.85, 1.76, 2.49, 2.51, 3.32, 4.1, 4.87, 5.73, 7.0, 8.0, 10.4, 9.69, 8.1, 5.37, 3.69, 2.72, 1.43, 0.0, 9.48, 3.82, 4.8, 4.32, 5.98, 7.26, 6.71, 6.71, 6.71, 7.82, 7.82, 7.82, 8.1, 8.1, 5.8, 5.8, 5.28, 7.44, 7.69, 8.87, 9.8, 10.65, 11.9, 11.9, 11.9, 11.9, 13.15, 13.15, 13.15, 13.56, 13.56, 13.56, 13.59, 13.59, 13.19, 12.79, 13.19, 13.99, 13.99, 13.7, 13.28, 13.28, 13.59, 13.15, 13.15, 13.15, 13.15, 13.44, 13.44, 12.39, 11.53, 11.53, 11.16, 9.17, 6.7, 6.94, 6.94, 6.94, 3.68, 2.6, 2.28, 2.17, 1.95, 1.58, 1.58, 0.0, 0.0, 0.0, 0.0, 0.0, 0.0, 0.0, 0.0, 0.0, 0.0, 0.0, 0.0, 0.0, 0.85, 0.89, 1.68, 1.76, 2.6, 2.51, 3.42, 3.44, 4.1, 4.98, 5.67, 6.6, 8.6, 10.21, 9.51, 6.77, 4.91, 4.0, 5.8, 12.96, 6.7, 2.82, 5.0, 6.71, 7.59, 6.7, 6.7, 6.7, 6.7, 7.82, 7.82, 7.82, 6.44, 6.67, 5.8, 5.8, 6.0, 6.0, 7.44, 9.8, 10.65, 11.53, 11.9, 11.9, 11.9, 12.42, 13.15, 13.15, 13.15, 13.56, 13.56, 13.97, 13.59, 13.59, 13.19, 12.79, 12.39, 12.79, 12.79, 13.7, 13.7, 13.28, 13.59, 13.23, 13.15, 13.15, 13.15, 13.01, 13.01, 11.99, 11.53, 11.53, 11.16, 10.79, 8.85, 7.19, 6.94, 6.94, 6.45, 3.39, 2.49, 2.28, 2.17, 1.58, 1.58, 0.0, 0.0, 0.0, 0.0, 0.0, 0.0, 0.0, 0.0, 0.0, 0.0, 1.32, 1.4, 1.26, 1.67, 1.68, 1.68, 1.69, 1.76, 2.41, 2.51, 3.19, 4.21, 4.81, 4.81, 5.86, 6.8, 9.47, 10.6, 8.83, 6.5, 6.12, 10.12, 8.53, 3.82, 2.82, 6.2, 6.44, 7.27, 6.7, 6.7, 6.7, 6.7, 7.82, 7.82, 6.44, 6.44, 6.44, 5.8, 4.1, 4.24, 6.0, 7.44, 9.8, 11.53, 11.53, 11.9, 11.9, 11.9, 13.15, 13.39, 13.39, 13.15, 13.15, 13.56, 13.56, 13.56, 13.19, 13.19, 12.79, 12.39, 12.39, 11.88, 12.87, 13.28, 13.57, 13.67, 13.23, 13.15, 13.15, 13.15, 13.01, 13.01, 11.99, 11.99, 11.53, 11.16, 10.79, 10.41, 7.19, 7.19, 6.7, 6.45, 3.39, 3.25, 2.39, 2.28, 0.0, 0.0, 0.0, 0.0, 0.0, 0.0, 0.0, 0.0, 0.0, 0.0, 0.0, 0.0, 0.94, 1.75, 1.84, 1.75, 0.85, 0.85, 0.82, 1.69, 1.76, 2.51, 2.51, 3.32, 4.93, 5.8, 6.0, 6.52, 7.82, 9.98, 10.2, 8.47, 10.43, 9.6, 7.9, 6.2, 6.2, 7.59, 6.17, 5.29, 6.42, 7.27, 7.27, 7.27, 5.6, 5.4, 5.6, 6.44, 3.96, 4.1, 3.56, 3.56, 6.0, 8.38, 9.8, 11.53, 11.9, 11.9, 11.53, 12.03, 12.74, 12.98, 12.98, 13.15, 13.15, 13.56, 13.56, 13.56, 13.56, 13.56, 12.79, 12.79, 12.39, 11.5, 12.45, 12.72, 13.15, 13.67, 13.23, 12.71, 12.71, 12.71, 12.58, 11.6, 11.99, 11.99, 11.16, 11.16, 10.79, 10.79, 7.19, 6.94, 6.7, 6.45, 3.39, 3.25, 2.39, 0.0, 0.0, 0.0, 0.0, 0.0, 0.0, 0.0, 0.0, 0.0, 0.0, 0.0, -0.67, 0.0, 1.01, 1.84, 1.75, 1.84, 1.75, 0.89, 0.85, 0.85, 1.76, 1.63, 2.51, 3.42, 5.06, 5.11, 5.8, 5.8, 6.65, 7.15, 9.4, 7.99, 8.28, 9.75, 8.18, 5.9, 6.44, 7.27, 6.44, 5.52, 6.42, 6.14, 6.14, 6.14, 5.4, 5.4, 3.82, 3.96, 3.96, 3.96, 1.83, 4.1, 6.0, 9.48, 11.53, 11.53, 11.9, 11.9, 12.03, 12.33, 12.56, 12.98, 13.15, 13.15, 13.15, 13.15, 13.56, 13.56, 13.56, 13.56, 12.79, 12.79, 12.39, 12.39, 12.72, 12.72, 12.72, 13.23, 12.79, 12.71, 12.71, 12.71, 12.58, 11.6, 11.6, 11.6, 11.99, 11.16, 10.79, 10.79, 6.94, 6.94, 6.7, 6.45, 5.95, 3.11, 2.39, 0.0, 0.0, 0.0, 0.0, 0.0, 0.0, 0.0, 0.0, 0.0, 0.0, -0.78, -0.72, 0.0, 0.0, 1.01, 1.84, 2.54, 2.69, 2.57, 1.84, 1.84, 0.85, 1.76, 3.39, 4.3, 4.17, 5.06, 4.93, 5.06, 4.93, 5.15, 9.43, 7.8, 6.69, 8.22, 8.4, 6.32, 5.63, 5.9, 5.9, 5.29, 5.06, 5.86, 5.86, 5.86, 3.82, 3.82, 3.82, 3.82, 2.06, 2.06, 1.77, 4.1, 8.1, 10.47, 11.53, 11.53, 11.9, 11.53, 12.33, 12.33, 12.74, 12.74, 13.15, 13.15, 12.42, 13.15, 13.56, 13.56, 13.56, 13.15, 12.79, 12.39, 12.39, 12.39, 12.72, 12.72, 12.72, 12.72, 12.71, 12.71, 12.71, 12.27, 12.27, 11.6, 11.6, 11.6, 11.6, 10.79, 10.79, 10.79, 8.85, 6.94, 6.7, 6.45, 3.39, 2.49, 2.49, 0.0, 0.0, 0.0, 0.0, 0.0, 0.0, 0.0, 0.0, 0.0, 0.0, 0.0, -0.72, -1.35, -1.01, 0.0, 1.84, 2.83, 3.45, 3.63, 3.63, 3.63, 2.83, 3.36, 4.44, 5.0, 4.3, 4.01, 4.87, 4.87, 4.06, 6.62, 8.94, 7.18, 3.78, 3.36, 0.0, 4.6, 4.96, 6.01, 6.32, 5.36, 4.6, 4.6, 4.6, 4.6, 3.82, 3.82, 3.82, 1.98, 2.06, 1.77, 1.77, 5.8, 8.1, 10.47, 10.82, 11.53, 12.39, 12.39, 12.33, 12.89, 13.32, 12.74, 12.74, 13.15, 12.42, 13.15, 12.81, 12.81, 12.81, 12.42, 11.9, 11.53, 12.39, 11.99, 11.99, 12.72, 12.72, 12.45, 12.04, 12.27, 12.27, 11.62, 11.62, 11.2, 11.6, 11.6, 10.79, 10.79, 10.79, 10.79, 8.85, 6.94, 6.7, 3.68, 3.39, 0.0, 0.0, 0.0, 0.0, 0.0, 0.0, 0.0, 0.0, 0.0, 0.0, 0.0, 0.0, 0.0, -0.78, -1.47, -0.81, 0.0, 0.94, 1.95, 1.84, 1.84, 2.57, 3.49, 4.56, 5.06, 5.29, 5.14, 4.13, 4.13, 4.3, 4.87, 4.38, 6.47, 7.35, 5.29, 3.33, 2.28, 3.96, 5.2, 5.95, 4.96, 4.46, 3.8, 4.83, 4.83, 4.83, 4.83, 1.98, 1.98, 1.98, 1.98, 1.71, 1.77, 3.96, 5.8, 9.17, 10.47, 11.5, 11.5, 11.99, 11.99, 11.92, 12.89, 12.74, 12.74, 12.39, 13.15, 13.15, 12.42, 12.42, 12.42, 12.42, 12.42, 11.53, 11.53, 11.53, 11.16, 11.6, 11.5, 12.45, 12.45, 12.04, 11.62, 11.62, 11.62, 10.8, 11.2, 11.2, 11.2, 10.79, 10.79, 10.79, 10.41, 8.85, 6.94, 3.96, 3.68, 0.0, 0.0, 0.0, 0.0, 0.0, -2.06, -1.67, -1.58, -1.25, -1.25, -1.01, -1.01, 0.0, 0.0, -0.83, -0.78, -1.6, -0.76, 0.0, 0.0, 0.89, 0.94, 1.75, 2.7, 3.49, 3.49, 4.4, 4.25, 4.13, 4.13, 4.13, 5.2, 4.98, 6.69, 7.33, 6.22, 5.09, 4.39, 3.92, 4.23, 5.0, 4.6, 4.22, 3.6, 3.8, 3.4, 3.4, 3.4, 1.64, 1.64, 1.71, 0.0, 0.0, 1.71, 3.96, 5.8, 8.85, 9.17, 11.12, 11.12, 11.6, 11.6, 11.6, 11.99, 12.39, 12.39, 12.39, 12.74, 13.15, 12.42, 12.42, 12.42, 12.42, 12.42, 11.53, 11.53, 11.16, 11.16, 10.12, 11.5, 11.5, 12.45, 12.04, 11.62, 11.62, 11.62, 10.8, 10.8, 11.2, 10.41, 10.41, 10.41, 10.41, 8.85, 6.94, 3.96, 3.96, 0.0, 0.0, 0.0, 0.0, 0.0, 0.0, -2.06, -1.67, -1.58, -1.49, -1.25, -1.25, -1.01, -0.95, -0.89, -0.89, -0.78, -1.41, -1.6, -0.82, 0.0, 0.0, 0.94, 0.89, 1.75, 2.7, 2.7, 2.7, 3.36, 3.25, 4.13, 4.13, 5.06, 5.8, 5.86, 6.74, 7.14, 7.4, 5.8, 3.88, 4.2, 4.6, 4.6, 3.52, 4.37, 5.36, 5.36, 5.36, 5.36, 1.64, 1.64, 0.0, 0.0, 0.0, 1.71, 3.82, 6.44, 8.85, 8.85, 11.12, 11.12, 11.12, 11.6, 11.6, 11.99, 12.39, 12.39, 12.39, 12.74, 12.03, 12.42, 12.42, 12.42, 11.64, 11.28, 11.28, 11.16, 10.3, 11.16, 10.12, 10.47, 11.5, 11.12, 12.04, 11.62, 11.62, 10.8, 10.8, 10.8, 11.2, 10.41, 10.41, 10.41, 10.41, 8.85, 3.96, 3.96, 3.96, 0.0, 0.0, 0.0, 0.0, 0.0, 0.0, 0.0, -1.67, -1.67, -1.58, -1.25, -1.25, -1.01, -1.01, -0.89, -0.89, -1.63, -1.52, -2.29, -2.29, -2.09, 0.0, 0.0, 0.94, 1.67, 2.57, 2.57, 2.57, 2.59, 2.59, 3.51, 5.0, 4.87, 4.93, 4.87, 5.98, 7.95, 7.6, 5.92, 3.88, 3.7, 3.7, 3.88, 4.56, 4.44, 5.59, 5.59, 5.59, 5.59, 0.0, 0.0, 0.0, 0.0, 0.0, 1.98, 3.82, 6.21, 6.21, 8.85, 10.73, 11.12, 11.12, 11.12, 11.12, 11.99, 11.99, 12.39, 12.39, 12.03, 12.03, 12.42, 12.42, 11.64, 11.28, 11.28, 11.28, 10.3, 10.3, 9.96, 10.79, 10.47, 10.47, 11.12, 10.73, 11.62, 10.8, 10.8, 10.8, 10.8, 11.2, 10.41, 10.41, 10.04, 10.04, 6.7, 6.94, 3.96, 3.96, 3.68, 0.0, 0.0, 0.0, 0.0, 0.0, 0.0, -1.67, -1.58, -1.58, -1.25, -1.18, -1.01, -1.01, -0.94, -1.84, -1.73, -1.52, -2.47, -3.11, -3.17, -1.0, 0.0, 0.89, 1.84, 2.69, 2.57, 2.57, 2.57, 2.7, 4.25, 4.13, 4.17, 4.21, 4.24, 4.66, 7.05, 6.64, 6.29, 5.18, 3.06, 3.06, 3.7, 4.0, 4.74, 5.2, 6.32, 6.32, 6.32, 0.0, 0.0, 0.0, 0.0, 0.0, 0.0, 1.91, 4.48, 6.21, 8.85, 8.85, 10.37, 11.12, 11.12, 11.12, 11.99, 12.39, 11.99, 12.03, 12.03, 12.03, 12.42, 12.42, 11.64, 11.28, 11.28, 10.91, 10.91, 10.3, 9.96, 9.96, 10.47, 10.47, 10.12, 10.73, 10.73, 9.66, 10.8, 10.8, 10.8, 10.8, 10.04, 10.04, 10.04, 8.53, 6.7, 6.7, 3.82, 3.82, 3.53, 3.39, 0.0, 0.0, 0.0, 0.0, 0.0, -1.75, -1.58, -1.58, -1.25, -1.25, -1.07, -1.07, -1.84, -1.84, -1.73, -2.35, -2.35, -3.79, -2.9, -1.4, 0.0, 0.89, 1.75, 2.69, 2.57, 2.57, 2.7, 2.59, 3.51, 3.39, 3.42, 3.32, 3.34, 4.52, 6.26, 7.4, 6.47, 5.92, 4.44, 3.7, 3.7, 4.0, 4.98, 5.2, 6.32, 6.32, 6.32, 0.0, 0.0, 0.0, 0.0, 0.0, 0.0, 1.91, 3.82, 6.21, 6.44, 8.85, 8.85, 10.12, 10.12, 10.79, 11.16, 11.16, 11.64, 11.64, 12.03, 12.03, 11.28, 11.64, 11.64, 11.28, 10.91, 10.91, 10.91, 9.96, 9.96, 9.96, 9.48, 10.47, 10.12, 9.77, 10.73, 9.66, 9.66, 9.66, 9.66, 8.53, 8.53, 8.53, 8.53, 8.22, 6.45, 6.45, 6.7, 3.68, 3.39, 2.6, 0.0, 0.0, 0.0, 0.0, 0.0, -1.75, -1.67, -1.67, -1.32, -1.25, -1.07, -2.09, -1.95, -1.95, -1.84, -2.51, -2.51, -3.79, -4.03, -3.09, -0.99, 0.0, 1.26, 1.75, 1.84, 1.75, 2.7, 2.47, 2.59, 3.39, 3.29, 3.32, 3.23, 4.38, 5.94, 7.03, 6.47, 5.92, 4.99, 3.88, 3.88, 4.2, 4.0, 4.34, 6.91, 6.91, 6.91, 0.0, 0.0, 0.0, 0.0, 0.0, 0.0, 1.91, 1.98, 3.82, 6.44, 7.82, 7.82, 9.17, 9.96, 9.96, 10.3, 10.91, 10.91, 10.91, 11.28, 11.28, 11.28, 11.28, 10.52, 10.52, 10.18, 10.18, 10.91, 9.96, 9.96, 9.96, 9.48, 9.17, 9.77, 9.77, 9.77, 8.53, 9.66, 9.3, 9.3, 8.53, 8.53, 8.22, 8.22, 6.2, 5.0, 5.0, 5.0, 2.71, 2.6, 0.0, 0.0, 0.0, 0.0, 0.0, 0.0, -1.84, -1.75, -1.67, -1.32, -1.32, -1.14, -2.21, -1.95, -1.95, -1.84, -2.26, -2.4, -3.4, -4.03, -3.69, -2.06, 0.0, 0.0, 1.0, 0.94, 0.89, 1.84, 1.68, 1.76, 2.49, 2.51, 3.42, 3.44, 4.1, 5.99, 7.2, 6.29, 5.92, 5.55, 4.99, 4.6, 4.5, 3.7, 4.5, 7.6, 7.6, 7.6, 0.0, 0.0, 0.0, 0.0, 0.0, 0.0, 1.91, 1.98, 3.82, 6.44, 7.82, 7.82, 9.17, 9.96, 9.96, 10.3, 10.91, 10.91, 10.91, 11.28, 11.28, 11.28, 11.28, 10.52, 10.52, 10.18, 10.18, 10.91, 9.96, 9.96, 9.96, 9.48, 9.17, 9.77, 9.77, 9.77, 8.53, 9.66, 9.3, 9.3, 8.53, 8.53, 8.22, 8.22, 6.2, 5.0, 5.0, 5.0, 2.71, 2.6, 0.0, 0.0, 0.0, 0.0, 0.0, 0.0, -1.84, -1.75, -1.67, -1.32, -1.32, -1.14, -2.21, -1.95, -1.95, -1.84, -2.26, -2.4, -3.4, -4.03, -3.69, -2.06, 0.0, 0.0, 1.0, 0.94, 1.75, 1.84, 1.68, 1.76, 2.49, 2.6, 3.29, 3.32, 4.21, 5.28, 7.21, 6.8, 6.85, 6.42, 6.21, 5.35, 4.92, 4.4, 5.36, 8.48, 8.48, 8.48]}]